Wetterdaten: Freitag, 21.05.2021
Datum Zeit Temp. Aussen Temp. o. S. Temp +5cm Feuchte Auss Luftdruck Regen Sonnenschein Regendauer Solar Windben Empfang
21.05.2021 00:00 13,9 C 13,3 C 10,6 C 67 % 1011,5 hPa 0,0 l/m 0 min 0 min 0 W/m 9,7 km/h (2 Bft) 97,87 %
21.05.2021 00:02 13,9 C 12,8 C 10,6 C 67 % 1011,4 hPa 0,0 l/m 0 min 0 min 0 W/m 6,4 km/h (2 Bft) 97,30 %
21.05.2021 00:04 13,9 C 12,8 C 10,6 C 67 % 1011,4 hPa 0,0 l/m 0 min 0 min 0 W/m 19,3 km/h (3 Bft) 100,00 %
21.05.2021 00:08 13,8 C 12,8 C 10,6 C 67 % 1011,4 hPa 0,0 l/m 0 min 0 min 0 W/m 9,7 km/h (2 Bft) 97,85 %
21.05.2021 00:10 13,9 C 12,8 C 10,6 C 67 % 1011,3 hPa 0,0 l/m 0 min 0 min 0 W/m 9,7 km/h (2 Bft) 100,00 %
21.05.2021 00:12 13,9 C 12,8 C 10,6 C 68 % 1011,4 hPa 0,0 l/m 0 min 0 min 0 W/m 12,9 km/h (3 Bft) 100,00 %
21.05.2021 00:14 13,8 C 12,8 C 10,6 C 68 % 1011,3 hPa 0,0 l/m 0 min 0 min 0 W/m 9,7 km/h (2 Bft) 100,00 %
21.05.2021 00:16 13,8 C 12,8 C 10,6 C 68 % 1011,3 hPa 0,0 l/m 0 min 0 min 0 W/m 12,9 km/h (3 Bft) 97,87 %
21.05.2021 00:18 13,8 C 12,8 C 10,6 C 68 % 1011,2 hPa 0,0 l/m 0 min 0 min 0 W/m 16,1 km/h (3 Bft) 100,00 %
21.05.2021 00:20 13,8 C 12,8 C 10,6 C 68 % 1011,2 hPa 0,0 l/m 0 min 0 min 0 W/m 9,7 km/h (2 Bft) 100,00 %
21.05.2021 00:22 13,8 C 12,8 C 10,6 C 68 % 1011,1 hPa 0,0 l/m 0 min 0 min 0 W/m 9,7 km/h (2 Bft) 97,87 %
21.05.2021 00:24 13,8 C 12,8 C 10,6 C 68 % 1011,1 hPa 0,0 l/m 0 min 0 min 0 W/m 6,4 km/h (2 Bft) 100,00 %
21.05.2021 00:26 13,8 C 12,8 C 10,6 C 69 % 1011,1 hPa 0,0 l/m 0 min 0 min 0 W/m 12,9 km/h (3 Bft) 93,62 %
21.05.2021 00:28 13,8 C 12,8 C 10,6 C 69 % 1011,1 hPa 0,0 l/m 0 min 0 min 0 W/m 6,4 km/h (2 Bft) 97,87 %
21.05.2021 00:30 13,8 C 12,8 C 10,6 C 69 % 1011,0 hPa 0,0 l/m 0 min 0 min 0 W/m 12,9 km/h (3 Bft) 97,83 %
21.05.2021 00:32 13,8 C 12,8 C 10,6 C 69 % 1010,9 hPa 0,0 l/m 0 min 0 min 0 W/m 12,9 km/h (3 Bft) 95,74 %
21.05.2021 00:34 13,8 C 12,8 C 10,6 C 69 % 1010,9 hPa 0,0 l/m 0 min 0 min 0 W/m 12,9 km/h (3 Bft) 97,87 %
21.05.2021 00:36 13,8 C 12,8 C 10,6 C 69 % 1010,9 hPa 0,0 l/m 0 min 0 min 0 W/m 16,1 km/h (3 Bft) 97,87 %
21.05.2021 00:38 13,8 C 12,8 C 10,6 C 69 % 1010,8 hPa 0,0 l/m 0 min 0 min 0 W/m 12,9 km/h (3 Bft) 97,87 %
21.05.2021 00:40 13,8 C 12,8 C 10,6 C 69 % 1010,8 hPa 0,0 l/m 0 min 0 min 0 W/m 12,9 km/h (3 Bft) 97,87 %
21.05.2021 00:42 13,8 C 12,8 C 10,6 C 69 % 1010,8 hPa 0,0 l/m 0 min 0 min 0 W/m 6,4 km/h (2 Bft) 97,83 %
21.05.2021 00:44 13,8 C 12,8 C 10,6 C 69 % 1010,8 hPa 0,0 l/m 0 min 0 min 0 W/m 6,4 km/h (2 Bft) 95,74 %
21.05.2021 00:46 13,7 C 12,8 C 10,6 C 69 % 1010,7 hPa 0,0 l/m 0 min 0 min 0 W/m 12,9 km/h (3 Bft) 97,87 %
21.05.2021 00:48 13,7 C 12,8 C 10,6 C 69 % 1010,6 hPa 0,0 l/m 0 min 0 min 0 W/m 16,1 km/h (3 Bft) 97,87 %
21.05.2021 00:50 13,7 C 12,8 C 10,6 C 70 % 1010,6 hPa 0,0 l/m 0 min 0 min 0 W/m 12,9 km/h (3 Bft) 97,87 %
21.05.2021 00:52 13,7 C 12,8 C 10,6 C 70 % 1010,6 hPa 0,0 l/m 0 min 0 min 0 W/m 16,1 km/h (3 Bft) 97,87 %
21.05.2021 00:54 13,6 C 12,8 C 10,6 C 70 % 1010,6 hPa 0,0 l/m 0 min 0 min 0 W/m 16,1 km/h (3 Bft) 97,83 %
21.05.2021 00:56 13,6 C 12,8 C 10,6 C 70 % 1010,6 hPa 0,0 l/m 0 min 0 min 0 W/m 12,9 km/h (3 Bft) 97,87 %
21.05.2021 00:58 13,6 C 12,8 C 10,6 C 70 % 1010,5 hPa 0,0 l/m 0 min 0 min 0 W/m 6,4 km/h (2 Bft) 97,87 %
21.05.2021 01:00 13,6 C 12,8 C 10,6 C 70 % 1010,5 hPa 0,0 l/m 0 min 0 min 0 W/m 19,3 km/h (3 Bft) 97,87 %
21.05.2021 01:02 13,6 C 12,8 C 10,6 C 70 % 1010,5 hPa 0,0 l/m 0 min 0 min 0 W/m 12,9 km/h (3 Bft) 97,87 %
21.05.2021 01:04 13,6 C 12,8 C 10,6 C 70 % 1010,4 hPa 0,0 l/m 0 min 0 min 0 W/m 12,9 km/h (3 Bft) 97,87 %
21.05.2021 01:06 13,7 C 12,8 C 10,6 C 70 % 1010,3 hPa 0,0 l/m 0 min 0 min 0 W/m 6,4 km/h (2 Bft) 97,83 %
21.05.2021 01:08 13,7 C 12,8 C 10,6 C 70 % 1010,2 hPa 0,0 l/m 0 min 0 min 0 W/m 12,9 km/h (3 Bft) 97,87 %
21.05.2021 01:10 13,7 C 12,8 C 10,6 C 70 % 1010,2 hPa 0,0 l/m 0 min 0 min 0 W/m 12,9 km/h (3 Bft) 97,87 %
21.05.2021 01:12 13,7 C 12,8 C 10,6 C 70 % 1010,2 hPa 0,0 l/m 0 min 0 min 0 W/m 12,9 km/h (3 Bft) 97,87 %
21.05.2021 01:14 13,7 C 12,8 C 10,6 C 70 % 1010,1 hPa 0,0 l/m 0 min 0 min 0 W/m 6,4 km/h (2 Bft) 95,74 %
21.05.2021 01:16 13,7 C 12,8 C 10,6 C 70 % 1010,1 hPa 0,0 l/m 0 min 0 min 0 W/m 19,3 km/h (3 Bft) 97,87 %
21.05.2021 01:18 13,7 C 12,8 C 10,6 C 70 % 1010,0 hPa 0,0 l/m 0 min 0 min 0 W/m 16,1 km/h (3 Bft) 97,83 %
21.05.2021 01:20 13,7 C 12,8 C 10,6 C 71 % 1010,0 hPa 0,0 l/m 0 min 0 min 0 W/m 16,1 km/h (3 Bft) 97,87 %
21.05.2021 01:22 13,7 C 12,8 C 10,6 C 71 % 1010,0 hPa 0,0 l/m 0 min 0 min 0 W/m 12,9 km/h (3 Bft) 97,87 %
21.05.2021 01:24 13,6 C 12,8 C 10,6 C 71 % 1010,0 hPa 0,0 l/m 0 min 0 min 0 W/m 9,7 km/h (2 Bft) 97,87 %
21.05.2021 01:26 13,6 C 12,8 C 10,0 C 71 % 1010,0 hPa 0,0 l/m 0 min 0 min 0 W/m 12,9 km/h (3 Bft) 97,87 %
21.05.2021 01:28 13,6 C 12,8 C 10,0 C 71 % 1010,0 hPa 0,0 l/m 0 min 0 min 0 W/m 3,2 km/h (1 Bft) 95,74 %
21.05.2021 01:30 13,6 C 12,8 C 10,0 C 71 % 1009,9 hPa 0,0 l/m 0 min 0 min 0 W/m 16,1 km/h (3 Bft) 97,83 %
21.05.2021 01:32 13,6 C 12,8 C 10,0 C 71 % 1009,9 hPa 0,0 l/m 0 min 0 min 0 W/m 16,1 km/h (3 Bft) 96,23 %
21.05.2021 01:34 13,6 C 12,8 C 10,6 C 71 % 1009,9 hPa 0,0 l/m 0 min 0 min 0 W/m 12,9 km/h (3 Bft) 100,00 %
21.05.2021 01:36 13,6 C 12,8 C 10,6 C 71 % 1009,8 hPa 0,0 l/m 0 min 0 min 0 W/m 9,7 km/h (2 Bft) 95,74 %
21.05.2021 01:38 13,6 C 12,8 C 10,6 C 71 % 1009,8 hPa 0,0 l/m 0 min 0 min 0 W/m 16,1 km/h (3 Bft) 93,62 %
21.05.2021 01:40 13,6 C 12,8 C 10,6 C 71 % 1009,7 hPa 0,0 l/m 0 min 0 min 0 W/m 16,1 km/h (3 Bft) 95,74 %
21.05.2021 01:42 13,6 C 12,8 C 10,6 C 71 % 1009,7 hPa 0,0 l/m 0 min 0 min 0 W/m 12,9 km/h (3 Bft) 95,65 %
21.05.2021 01:44 13,6 C 12,8 C 10,6 C 71 % 1009,6 hPa 0,0 l/m 0 min 0 min 0 W/m 12,9 km/h (3 Bft) 93,62 %
21.05.2021 01:46 13,6 C 12,8 C 10,6 C 72 % 1009,6 hPa 0,0 l/m 0 min 0 min 0 W/m 9,7 km/h (2 Bft) 93,62 %
21.05.2021 01:48 13,6 C 12,8 C 10,6 C 72 % 1009,5 hPa 0,0 l/m 0 min 0 min 0 W/m 12,9 km/h (3 Bft) 95,74 %
21.05.2021 01:50 13,6 C 12,8 C 10,6 C 72 % 1009,5 hPa 0,0 l/m 0 min 0 min 0 W/m 12,9 km/h (3 Bft) 91,49 %
21.05.2021 01:52 13,6 C 12,8 C 10,6 C 72 % 1009,4 hPa 0,0 l/m 0 min 0 min 0 W/m 12,9 km/h (3 Bft) 95,74 %
21.05.2021 01:54 13,6 C 12,8 C 10,6 C 72 % 1009,4 hPa 0,0 l/m 0 min 0 min 0 W/m 12,9 km/h (3 Bft) 95,65 %
21.05.2021 01:56 13,6 C 12,8 C 10,6 C 72 % 1009,3 hPa 0,0 l/m 0 min 0 min 0 W/m 19,3 km/h (3 Bft) 95,74 %
21.05.2021 01:58 13,6 C 12,8 C 10,6 C 72 % 1009,3 hPa 0,0 l/m 0 min 0 min 0 W/m 19,3 km/h (3 Bft) 95,74 %
21.05.2021 02:00 13,6 C 12,8 C 10,6 C 72 % 1009,2 hPa 0,0 l/m 0 min 0 min 0 W/m 9,7 km/h (2 Bft) 95,74 %
21.05.2021 02:02 13,6 C 12,8 C 10,6 C 72 % 1009,2 hPa 0,0 l/m 0 min 0 min 0 W/m 12,9 km/h (3 Bft) 93,62 %
21.05.2021 02:04 13,6 C 12,8 C 10,6 C 72 % 1009,1 hPa 0,0 l/m 0 min 0 min 0 W/m 12,9 km/h (3 Bft) 93,62 %
21.05.2021 02:06 13,6 C 12,8 C 10,6 C 72 % 1009,0 hPa 0,0 l/m 0 min 0 min 0 W/m 12,9 km/h (3 Bft) 95,65 %
21.05.2021 02:08 13,6 C 12,8 C 10,0 C 72 % 1008,9 hPa 0,0 l/m 0 min 0 min 0 W/m 12,9 km/h (3 Bft) 93,62 %
21.05.2021 02:10 13,6 C 12,8 C 10,6 C 72 % 1008,9 hPa 0,0 l/m 0 min 0 min 0 W/m 12,9 km/h (3 Bft) 95,74 %
21.05.2021 02:12 13,6 C 12,8 C 10,0 C 72 % 1008,9 hPa 0,0 l/m 0 min 0 min 0 W/m 12,9 km/h (3 Bft) 95,74 %
21.05.2021 02:14 13,6 C 12,8 C 10,0 C 72 % 1008,9 hPa 0,0 l/m 0 min 0 min 0 W/m 16,1 km/h (3 Bft) 95,74 %
21.05.2021 02:16 13,6 C 12,8 C 10,6 C 72 % 1008,9 hPa 0,0 l/m 0 min 0 min 0 W/m 12,9 km/h (3 Bft) 93,62 %
21.05.2021 02:18 13,6 C 12,8 C 10,6 C 72 % 1008,9 hPa 0,0 l/m 0 min 0 min 0 W/m 12,9 km/h (3 Bft) 93,48 %
21.05.2021 02:20 13,6 C 12,8 C 10,6 C 72 % 1008,9 hPa 0,0 l/m 0 min 0 min 0 W/m 16,1 km/h (3 Bft) 95,74 %
21.05.2021 02:22 13,6 C 12,8 C 10,6 C 73 % 1008,8 hPa 0,0 l/m 0 min 0 min 0 W/m 16,1 km/h (3 Bft) 95,74 %
21.05.2021 02:24 13,6 C 12,8 C 10,6 C 73 % 1008,8 hPa 0,0 l/m 0 min 0 min 0 W/m 16,1 km/h (3 Bft) 95,74 %
21.05.2021 02:26 13,6 C 12,8 C 10,6 C 73 % 1008,7 hPa 0,0 l/m 0 min 0 min 0 W/m 16,1 km/h (3 Bft) 97,87 %
21.05.2021 02:28 13,6 C 12,8 C 10,6 C 73 % 1008,7 hPa 0,0 l/m 0 min 0 min 0 W/m 19,3 km/h (3 Bft) 100,00 %
21.05.2021 02:30 13,6 C 12,8 C 10,6 C 73 % 1008,7 hPa 0,0 l/m 0 min 0 min 0 W/m 25,7 km/h (4 Bft) 97,83 %
21.05.2021 02:32 13,6 C 12,8 C 10,6 C 73 % 1008,7 hPa 0,0 l/m 0 min 0 min 0 W/m 12,9 km/h (3 Bft) 100,00 %
21.05.2021 02:34 13,6 C 12,8 C 10,6 C 73 % 1008,7 hPa 0,0 l/m 0 min 0 min 0 W/m 19,3 km/h (3 Bft) 100,00 %
21.05.2021 02:36 13,7 C 12,8 C 10,6 C 73 % 1008,6 hPa 0,0 l/m 0 min 0 min 0 W/m 29,0 km/h (5 Bft) 100,00 %
21.05.2021 02:38 13,7 C 12,8 C 10,6 C 73 % 1008,6 hPa 0,0 l/m 0 min 0 min 0 W/m 16,1 km/h (3 Bft) 97,87 %
21.05.2021 02:40 13,7 C 12,8 C 10,6 C 73 % 1008,6 hPa 0,0 l/m 0 min 0 min 0 W/m 12,9 km/h (3 Bft) 100,00 %
21.05.2021 02:42 13,7 C 12,8 C 10,6 C 73 % 1008,5 hPa 0,0 l/m 0 min 0 min 0 W/m 22,5 km/h (4 Bft) 100,00 %
21.05.2021 02:44 13,7 C 12,8 C 10,6 C 73 % 1008,6 hPa 0,0 l/m 0 min 0 min 0 W/m 25,7 km/h (4 Bft) 97,87 %
21.05.2021 02:46 13,8 C 12,8 C 10,6 C 73 % 1008,5 hPa 0,0 l/m 0 min 0 min 0 W/m 12,9 km/h (3 Bft) 100,00 %
21.05.2021 02:48 13,7 C 12,8 C 10,6 C 73 % 1008,4 hPa 0,0 l/m 0 min 0 min 0 W/m 22,5 km/h (4 Bft) 100,00 %
21.05.2021 02:50 13,8 C 12,8 C 10,6 C 73 % 1008,4 hPa 0,0 l/m 0 min 0 min 0 W/m 12,9 km/h (3 Bft) 100,00 %
21.05.2021 02:52 13,8 C 12,8 C 10,6 C 73 % 1008,4 hPa 0,0 l/m 0 min 0 min 0 W/m 22,5 km/h (4 Bft) 100,00 %
21.05.2021 02:54 13,8 C 12,8 C 10,6 C 73 % 1008,3 hPa 0,0 l/m 0 min 0 min 0 W/m 16,1 km/h (3 Bft) 100,00 %
21.05.2021 02:56 13,8 C 12,8 C 10,6 C 73 % 1008,2 hPa 0,0 l/m 0 min 0 min 0 W/m 19,3 km/h (3 Bft) 100,00 %
21.05.2021 02:58 13,8 C 12,8 C 10,6 C 73 % 1008,2 hPa 0,0 l/m 0 min 0 min 0 W/m 25,7 km/h (4 Bft) 97,87 %
21.05.2021 03:00 13,8 C 12,8 C 10,6 C 73 % 1008,2 hPa 0,0 l/m 0 min 0 min 0 W/m 16,1 km/h (3 Bft) 97,87 %
21.05.2021 03:02 13,8 C 12,8 C 10,6 C 73 % 1008,1 hPa 0,0 l/m 0 min 0 min 0 W/m 16,1 km/h (3 Bft) 97,87 %
21.05.2021 03:04 13,8 C 12,8 C 10,6 C 73 % 1008,1 hPa 0,0 l/m 0 min 0 min 0 W/m 29,0 km/h (5 Bft) 97,87 %
21.05.2021 03:06 13,8 C 12,8 C 10,6 C 73 % 1008,1 hPa 0,0 l/m 0 min 0 min 0 W/m 19,3 km/h (3 Bft) 100,00 %
21.05.2021 03:08 13,8 C 12,8 C 10,6 C 73 % 1008,1 hPa 0,0 l/m 0 min 0 min 0 W/m 12,9 km/h (3 Bft) 100,00 %
21.05.2021 03:10 13,8 C 12,8 C 10,6 C 73 % 1008,1 hPa 0,0 l/m 0 min 0 min 0 W/m 16,1 km/h (3 Bft) 100,00 %
21.05.2021 03:12 13,8 C 12,8 C 10,6 C 73 % 1008,1 hPa 0,0 l/m 0 min 0 min 0 W/m 22,5 km/h (4 Bft) 100,00 %
21.05.2021 03:14 13,8 C 12,8 C 10,6 C 73 % 1008,0 hPa 0,0 l/m 0 min 0 min 0 W/m 12,9 km/h (3 Bft) 100,00 %
21.05.2021 03:16 13,7 C 12,8 C 10,6 C 73 % 1008,0 hPa 0,0 l/m 0 min 0 min 0 W/m 22,5 km/h (4 Bft) 100,00 %
21.05.2021 03:18 13,7 C 12,8 C 10,6 C 73 % 1008,0 hPa 0,0 l/m 0 min 0 min 0 W/m 19,3 km/h (3 Bft) 100,00 %
21.05.2021 03:20 13,7 C 12,8 C 10,6 C 73 % 1007,9 hPa 0,0 l/m 0 min 0 min 0 W/m 12,9 km/h (3 Bft) 100,00 %
21.05.2021 03:22 13,7 C 12,8 C 10,6 C 73 % 1007,9 hPa 0,0 l/m 0 min 0 min 0 W/m 16,1 km/h (3 Bft) 100,00 %
21.05.2021 03:24 13,7 C 12,8 C 10,6 C 73 % 1007,8 hPa 0,0 l/m 0 min 0 min 0 W/m 12,9 km/h (3 Bft) 97,87 %
21.05.2021 03:26 13,6 C 12,8 C 10,0 C 73 % 1007,8 hPa 0,0 l/m 0 min 0 min 0 W/m 19,3 km/h (3 Bft) 97,87 %
21.05.2021 03:28 13,6 C 12,8 C 10,0 C 74 % 1007,8 hPa 0,0 l/m 0 min 0 min 0 W/m 16,1 km/h (3 Bft) 100,00 %
21.05.2021 03:30 13,6 C 12,8 C 10,0 C 74 % 1007,7 hPa 0,0 l/m 0 min 0 min 0 W/m 16,1 km/h (3 Bft) 97,83 %
21.05.2021 03:32 13,6 C 12,8 C 10,0 C 74 % 1007,7 hPa 0,0 l/m 0 min 0 min 0 W/m 19,3 km/h (3 Bft) 97,87 %
21.05.2021 03:34 13,6 C 12,8 C 10,0 C 74 % 1007,6 hPa 0,0 l/m 0 min 0 min 0 W/m 16,1 km/h (3 Bft) 100,00 %
21.05.2021 03:36 13,6 C 12,8 C 10,0 C 74 % 1007,6 hPa 0,0 l/m 0 min 0 min 0 W/m 12,9 km/h (3 Bft) 100,00 %
21.05.2021 03:38 13,5 C 12,8 C 10,0 C 74 % 1007,6 hPa 0,0 l/m 0 min 0 min 0 W/m 16,1 km/h (3 Bft) 100,00 %
21.05.2021 03:40 13,5 C 12,8 C 10,0 C 74 % 1007,6 hPa 0,0 l/m 0 min 0 min 0 W/m 16,1 km/h (3 Bft) 100,00 %
21.05.2021 03:42 13,5 C 12,8 C 10,0 C 74 % 1007,7 hPa 0,0 l/m 0 min 0 min 0 W/m 22,5 km/h (4 Bft) 100,00 %
21.05.2021 03:44 13,5 C 12,8 C 10,0 C 74 % 1007,6 hPa 0,0 l/m 0 min 0 min 0 W/m 19,3 km/h (3 Bft) 100,00 %
21.05.2021 03:46 13,5 C 12,8 C 10,0 C 74 % 1007,5 hPa 0,0 l/m 0 min 0 min 0 W/m 12,9 km/h (3 Bft) 100,00 %
21.05.2021 03:48 13,5 C 12,8 C 10,0 C 74 % 1007,5 hPa 0,0 l/m 0 min 0 min 0 W/m 16,1 km/h (3 Bft) 100,00 %
21.05.2021 03:50 13,5 C 12,8 C 10,0 C 74 % 1007,4 hPa 0,0 l/m 0 min 0 min 0 W/m 16,1 km/h (3 Bft) 100,00 %
21.05.2021 03:52 13,4 C 12,8 C 10,0 C 74 % 1007,4 hPa 0,0 l/m 0 min 0 min 0 W/m 12,9 km/h (3 Bft) 100,00 %
21.05.2021 03:54 13,4 C 12,8 C 10,0 C 74 % 1007,3 hPa 0,0 l/m 0 min 0 min 0 W/m 16,1 km/h (3 Bft) 100,00 %
21.05.2021 03:56 13,4 C 12,8 C 10,0 C 74 % 1007,4 hPa 0,0 l/m 0 min 0 min 0 W/m 19,3 km/h (3 Bft) 97,87 %
21.05.2021 03:58 13,4 C 12,8 C 10,0 C 74 % 1007,3 hPa 0,0 l/m 0 min 0 min 0 W/m 25,7 km/h (4 Bft) 97,87 %
21.05.2021 04:00 13,4 C 12,8 C 10,0 C 74 % 1007,4 hPa 0,0 l/m 0 min 0 min 0 W/m 16,1 km/h (3 Bft) 100,00 %
21.05.2021 04:02 13,4 C 12,8 C 10,0 C 74 % 1007,4 hPa 0,0 l/m 0 min 0 min 0 W/m 16,1 km/h (3 Bft) 91,67 %
21.05.2021 04:04 13,4 C 12,8 C 10,0 C 74 % 1007,2 hPa 0,0 l/m 0 min 0 min 0 W/m 6,4 km/h (2 Bft) 95,74 %
21.05.2021 04:06 13,4 C 12,8 C 10,0 C 74 % 1007,2 hPa 0,0 l/m 0 min 0 min 0 W/m 16,1 km/h (3 Bft) 100,00 %
21.05.2021 04:08 13,4 C 12,8 C 10,0 C 74 % 1007,2 hPa 0,0 l/m 0 min 0 min 0 W/m 12,9 km/h (3 Bft) 100,00 %
21.05.2021 04:10 13,4 C 12,8 C 10,0 C 74 % 1007,2 hPa 0,0 l/m 0 min 0 min 0 W/m 12,9 km/h (3 Bft) 97,87 %
21.05.2021 04:12 13,3 C 12,2 C 10,0 C 75 % 1007,1 hPa 0,0 l/m 0 min 0 min 0 W/m 9,7 km/h (2 Bft) 100,00 %
21.05.2021 04:14 13,3 C 12,2 C 10,0 C 75 % 1007,2 hPa 0,0 l/m 0 min 0 min 0 W/m 12,9 km/h (3 Bft) 97,87 %
21.05.2021 04:16 13,3 C 12,2 C 10,0 C 75 % 1007,2 hPa 0,0 l/m 0 min 0 min 0 W/m 6,4 km/h (2 Bft) 97,83 %
21.05.2021 04:18 13,3 C 12,2 C 10,0 C 75 % 1007,1 hPa 0,0 l/m 0 min 0 min 0 W/m 16,1 km/h (3 Bft) 100,00 %
21.05.2021 04:20 13,3 C 12,2 C 10,0 C 75 % 1007,1 hPa 0,0 l/m 0 min 0 min 0 W/m 19,3 km/h (3 Bft) 100,00 %
21.05.2021 04:22 13,3 C 12,2 C 10,0 C 75 % 1007,0 hPa 0,0 l/m 0 min 0 min 0 W/m 12,9 km/h (3 Bft) 100,00 %
21.05.2021 04:24 13,3 C 12,2 C 10,0 C 75 % 1007,0 hPa 0,0 l/m 0 min 0 min 0 W/m 16,1 km/h (3 Bft) 97,87 %
21.05.2021 04:26 13,2 C 12,2 C 10,0 C 75 % 1007,0 hPa 0,0 l/m 0 min 0 min 0 W/m 22,5 km/h (4 Bft) 95,74 %
21.05.2021 04:28 13,1 C 12,2 C 10,0 C 75 % 1007,0 hPa 0,0 l/m 0 min 0 min 0 W/m 19,3 km/h (3 Bft) 93,48 %
21.05.2021 04:30 13,1 C 12,2 C 9,5 C 75 % 1007,0 hPa 0,0 l/m 0 min 0 min 0 W/m 12,9 km/h (3 Bft) 95,74 %
21.05.2021 04:32 13,1 C 12,2 C 9,5 C 75 % 1007,0 hPa 0,0 l/m 0 min 0 min 0 W/m 19,3 km/h (3 Bft) 91,49 %
21.05.2021 04:34 13,1 C 12,2 C 9,5 C 75 % 1007,0 hPa 0,0 l/m 0 min 0 min 0 W/m 16,1 km/h (3 Bft) 93,62 %
21.05.2021 04:36 13,0 C 12,2 C 9,5 C 75 % 1006,9 hPa 0,0 l/m 0 min 0 min 0 W/m 9,7 km/h (2 Bft) 93,62 %
21.05.2021 04:38 13,0 C 12,2 C 9,5 C 75 % 1007,0 hPa 0,0 l/m 0 min 0 min 0 W/m 12,9 km/h (3 Bft) 93,62 %
21.05.2021 04:40 13,0 C 12,2 C 9,5 C 76 % 1006,9 hPa 0,0 l/m 0 min 0 min 0 W/m 12,9 km/h (3 Bft) 93,48 %
21.05.2021 04:42 13,0 C 12,2 C 9,5 C 76 % 1006,9 hPa 0,0 l/m 0 min 0 min 0 W/m 6,4 km/h (2 Bft) 93,62 %
21.05.2021 04:44 13,0 C 12,2 C 9,5 C 76 % 1006,9 hPa 0,0 l/m 0 min 0 min 0 W/m 6,4 km/h (2 Bft) 91,49 %
21.05.2021 04:46 13,0 C 12,2 C 9,5 C 76 % 1006,8 hPa 0,0 l/m 0 min 0 min 0 W/m 9,7 km/h (2 Bft) 93,62 %
21.05.2021 04:48 12,9 C 12,2 C 9,5 C 76 % 1006,8 hPa 0,0 l/m 0 min 0 min 0 W/m 12,9 km/h (3 Bft) 93,62 %
21.05.2021 04:50 12,9 C 12,2 C 9,5 C 76 % 1006,8 hPa 0,0 l/m 0 min 0 min 0 W/m 9,7 km/h (2 Bft) 93,62 %
21.05.2021 04:52 12,9 C 12,2 C 9,5 C 76 % 1006,8 hPa 0,0 l/m 0 min 0 min 0 W/m 6,4 km/h (2 Bft) 93,48 %
21.05.2021 04:54 12,9 C 12,2 C 9,5 C 76 % 1006,7 hPa 0,0 l/m 0 min 0 min 0 W/m 6,4 km/h (2 Bft) 91,49 %
21.05.2021 04:56 12,9 C 11,7 C 9,5 C 76 % 1006,7 hPa 0,0 l/m 0 min 0 min 0 W/m 6,4 km/h (2 Bft) 93,62 %
21.05.2021 04:58 12,8 C 11,7 C 9,5 C 76 % 1006,7 hPa 0,0 l/m 0 min 0 min 0 W/m 9,7 km/h (2 Bft) 93,62 %
21.05.2021 05:00 12,8 C 11,7 C 9,5 C 76 % 1006,7 hPa 0,0 l/m 0 min 0 min 0 W/m 12,9 km/h (3 Bft) 89,36 %
21.05.2021 05:02 12,8 C 11,7 C 9,5 C 76 % 1006,6 hPa 0,0 l/m 0 min 0 min 0 W/m 6,4 km/h (2 Bft) 91,49 %
21.05.2021 05:04 12,7 C 11,7 C 9,5 C 77 % 1006,6 hPa 0,0 l/m 0 min 0 min 0 W/m 12,9 km/h (3 Bft) 89,13 %
21.05.2021 05:06 12,7 C 11,7 C 9,5 C 77 % 1006,6 hPa 0,0 l/m 0 min 0 min 0 W/m 12,9 km/h (3 Bft) 93,62 %
21.05.2021 05:08 12,6 C 11,7 C 9,5 C 77 % 1006,5 hPa 0,0 l/m 0 min 0 min 0 W/m 16,1 km/h (3 Bft) 93,75 %
21.05.2021 05:10 12,6 C 11,7 C 8,9 C 77 % 1006,5 hPa 0,0 l/m 0 min 0 min 0 W/m 9,7 km/h (2 Bft) 91,49 %
21.05.2021 05:12 12,5 C 11,7 C 8,9 C 77 % 1006,5 hPa 0,0 l/m 0 min 0 min 0 W/m 16,1 km/h (3 Bft) 95,74 %
21.05.2021 05:14 12,5 C 11,7 C 8,9 C 77 % 1006,5 hPa 0,0 l/m 0 min 0 min 0 W/m 12,9 km/h (3 Bft) 95,74 %
21.05.2021 05:16 12,5 C 11,7 C 8,9 C 77 % 1006,5 hPa 0,0 l/m 0 min 0 min 0 W/m 9,7 km/h (2 Bft) 95,65 %
21.05.2021 05:18 12,5 C 11,7 C 8,9 C 77 % 1006,4 hPa 0,0 l/m 0 min 0 min 0 W/m 9,7 km/h (2 Bft) 93,62 %
21.05.2021 05:20 12,4 C 11,7 C 8,9 C 77 % 1006,4 hPa 0,0 l/m 0 min 0 min 0 W/m 9,7 km/h (2 Bft) 100,00 %
21.05.2021 05:22 12,4 C 11,7 C 8,9 C 77 % 1006,3 hPa 0,0 l/m 0 min 0 min 0 W/m 6,4 km/h (2 Bft) 95,74 %
21.05.2021 05:24 12,4 C 11,1 C 8,9 C 78 % 1006,3 hPa 0,0 l/m 0 min 0 min 0 W/m 6,4 km/h (2 Bft) 97,87 %
21.05.2021 05:26 12,4 C 11,1 C 8,9 C 78 % 1006,3 hPa 0,0 l/m 0 min 0 min 0 W/m 12,9 km/h (3 Bft) 97,87 %
21.05.2021 05:28 12,3 C 11,1 C 8,9 C 78 % 1006,3 hPa 0,0 l/m 0 min 0 min 0 W/m 3,2 km/h (1 Bft) 95,65 %
21.05.2021 05:30 12,3 C 11,1 C 8,9 C 78 % 1006,4 hPa 0,0 l/m 0 min 0 min 0 W/m 6,4 km/h (2 Bft) 95,74 %
21.05.2021 05:32 12,3 C 11,1 C 8,9 C 78 % 1006,3 hPa 0,0 l/m 0 min 0 min 0 W/m 16,1 km/h (3 Bft) 97,87 %
21.05.2021 05:34 12,2 C 11,1 C 8,9 C 78 % 1006,3 hPa 0,0 l/m 0 min 0 min 0 W/m 16,1 km/h (3 Bft) 97,87 %
21.05.2021 05:36 12,2 C 11,1 C 8,9 C 78 % 1006,2 hPa 0,0 l/m 0 min 0 min 1 W/m 9,7 km/h (2 Bft) 95,74 %
21.05.2021 05:38 12,2 C 11,1 C 8,9 C 78 % 1006,3 hPa 0,0 l/m 0 min 0 min 5 W/m 9,7 km/h (2 Bft) 95,65 %
21.05.2021 05:40 12,1 C 11,1 C 8,9 C 78 % 1006,3 hPa 0,0 l/m 0 min 0 min 5 W/m 25,7 km/h (4 Bft) 97,87 %
21.05.2021 05:42 12,1 C 11,1 C 8,9 C 78 % 1006,2 hPa 0,0 l/m 0 min 0 min 5 W/m 12,9 km/h (3 Bft) 97,87 %
21.05.2021 05:44 12,1 C 11,7 C 8,9 C 78 % 1006,2 hPa 0,0 l/m 0 min 0 min 5 W/m 29,0 km/h (5 Bft) 100,00 %
21.05.2021 05:46 12,1 C 11,7 C 8,9 C 78 % 1006,2 hPa 0,0 l/m 0 min 0 min 7 W/m 19,3 km/h (3 Bft) 100,00 %
21.05.2021 05:48 12,2 C 11,7 C 8,9 C 78 % 1006,3 hPa 0,0 l/m 0 min 0 min 7 W/m 32,2 km/h (5 Bft) 100,00 %
21.05.2021 05:50 12,2 C 11,7 C 8,9 C 78 % 1006,2 hPa 0,0 l/m 0 min 0 min 7 W/m 22,5 km/h (4 Bft) 100,00 %
21.05.2021 05:52 12,3 C 11,7 C 8,9 C 78 % 1006,1 hPa 0,0 l/m 0 min 0 min 7 W/m 25,7 km/h (4 Bft) 97,87 %
21.05.2021 05:54 12,3 C 11,7 C 8,9 C 78 % 1006,2 hPa 0,0 l/m 0 min 0 min 8 W/m 19,3 km/h (3 Bft) 97,87 %
21.05.2021 05:56 12,3 C 11,7 C 8,9 C 78 % 1006,1 hPa 0,0 l/m 0 min 0 min 9 W/m 25,7 km/h (4 Bft) 100,00 %
21.05.2021 05:58 12,3 C 11,7 C 9,5 C 78 % 1006,1 hPa 0,0 l/m 0 min 0 min 10 W/m 12,9 km/h (3 Bft) 100,00 %
21.05.2021 06:00 12,3 C 11,7 C 9,5 C 78 % 1006,1 hPa 0,0 l/m 0 min 0 min 11 W/m 22,5 km/h (4 Bft) 100,00 %
21.05.2021 06:02 12,4 C 11,7 C 8,9 C 78 % 1006,1 hPa 0,0 l/m 0 min 0 min 12 W/m 29,0 km/h (5 Bft) 97,83 %
21.05.2021 06:04 12,4 C 11,7 C 8,9 C 78 % 1006,1 hPa 0,0 l/m 0 min 0 min 12 W/m 22,5 km/h (4 Bft) 100,00 %
21.05.2021 06:08 12,4 C 11,7 C 8,9 C 78 % 1006,1 hPa 0,0 l/m 0 min 0 min 14 W/m 12,9 km/h (3 Bft) 100,00 %
21.05.2021 06:10 12,4 C 11,7 C 8,9 C 78 % 1006,0 hPa 0,0 l/m 0 min 0 min 14 W/m 16,1 km/h (3 Bft) 100,00 %
21.05.2021 06:12 12,4 C 11,7 C 8,9 C 78 % 1005,9 hPa 0,0 l/m 0 min 0 min 15 W/m 12,9 km/h (3 Bft) 97,87 %
21.05.2021 06:14 12,4 C 11,7 C 8,9 C 78 % 1005,9 hPa 0,0 l/m 0 min 0 min 16 W/m 16,1 km/h (3 Bft) 100,00 %
21.05.2021 06:16 12,3 C 11,7 C 8,9 C 78 % 1005,9 hPa 0,0 l/m 0 min 0 min 17 W/m 16,1 km/h (3 Bft) 100,00 %
21.05.2021 06:18 12,3 C 11,7 C 8,9 C 78 % 1005,9 hPa 0,0 l/m 0 min 0 min 18 W/m 16,1 km/h (3 Bft) 97,87 %
21.05.2021 06:20 12,3 C 11,7 C 8,9 C 78 % 1006,0 hPa 0,0 l/m 0 min 0 min 19 W/m 12,9 km/h (3 Bft) 100,00 %
21.05.2021 06:22 12,3 C 11,7 C 8,9 C 78 % 1005,9 hPa 0,0 l/m 0 min 0 min 19 W/m 12,9 km/h (3 Bft) 97,87 %
21.05.2021 06:24 12,3 C 11,7 C 8,9 C 78 % 1005,9 hPa 0,0 l/m 0 min 0 min 20 W/m 9,7 km/h (2 Bft) 100,00 %
21.05.2021 06:26 12,3 C 11,1 C 8,9 C 78 % 1005,9 hPa 0,0 l/m 0 min 0 min 21 W/m 6,4 km/h (2 Bft) 100,00 %
21.05.2021 06:28 12,3 C 11,1 C 8,9 C 78 % 1005,9 hPa 0,0 l/m 0 min 0 min 23 W/m 6,4 km/h (2 Bft) 100,00 %
21.05.2021 06:30 12,2 C 11,1 C 8,9 C 78 % 1005,8 hPa 0,0 l/m 0 min 0 min 24 W/m 12,9 km/h (3 Bft) 100,00 %
21.05.2021 06:32 12,2 C 11,1 C 8,9 C 78 % 1005,8 hPa 0,0 l/m 0 min 0 min 25 W/m 6,4 km/h (2 Bft) 100,00 %
21.05.2021 06:34 12,1 C 11,1 C 8,9 C 79 % 1005,9 hPa 0,0 l/m 0 min 0 min 25 W/m 9,7 km/h (2 Bft) 100,00 %
21.05.2021 06:36 12,1 C 11,1 C 8,9 C 79 % 1005,8 hPa 0,0 l/m 0 min 0 min 26 W/m 6,4 km/h (2 Bft) 95,65 %
21.05.2021 06:38 12,1 C 11,1 C 8,9 C 79 % 1005,9 hPa 0,0 l/m 0 min 0 min 26 W/m 9,7 km/h (2 Bft) 100,00 %
21.05.2021 06:40 12,1 C 11,1 C 8,9 C 79 % 1005,8 hPa 0,0 l/m 0 min 0 min 28 W/m 6,4 km/h (2 Bft) 100,00 %
21.05.2021 06:42 12,1 C 11,1 C 8,9 C 79 % 1005,7 hPa 0,0 l/m 0 min 0 min 28 W/m 9,7 km/h (2 Bft) 100,00 %
21.05.2021 06:44 12,1 C 11,1 C 8,9 C 79 % 1005,7 hPa 0,0 l/m 0 min 0 min 29 W/m 6,4 km/h (2 Bft) 97,87 %
21.05.2021 06:46 12,0 C 11,1 C 8,9 C 79 % 1005,8 hPa 0,0 l/m 0 min 0 min 33 W/m 12,9 km/h (3 Bft) 100,00 %
21.05.2021 06:48 12,0 C 11,7 C 8,9 C 79 % 1005,8 hPa 0,0 l/m 0 min 0 min 42 W/m 9,7 km/h (2 Bft) 97,83 %
21.05.2021 06:50 12,0 C 11,7 C 8,9 C 80 % 1005,8 hPa 0,0 l/m 0 min 0 min 51 W/m 6,4 km/h (2 Bft) 100,00 %
21.05.2021 06:52 12,0 C 11,7 C 8,9 C 80 % 1005,8 hPa 0,0 l/m 0 min 0 min 57 W/m 12,9 km/h (3 Bft) 97,87 %
21.05.2021 06:54 12,1 C 11,7 C 8,9 C 80 % 1005,8 hPa 0,0 l/m 0 min 0 min 65 W/m 16,1 km/h (3 Bft) 100,00 %
21.05.2021 06:56 12,1 C 11,7 C 8,9 C 80 % 1005,7 hPa 0,0 l/m 0 min 0 min 69 W/m 3,2 km/h (1 Bft) 100,00 %
21.05.2021 06:58 12,1 C 11,7 C 9,5 C 80 % 1005,7 hPa 0,0 l/m 0 min 0 min 71 W/m 16,1 km/h (3 Bft) 100,00 %
21.05.2021 07:00 12,3 C 12,2 C 9,5 C 80 % 1005,7 hPa 0,0 l/m 0 min 0 min 68 W/m 19,3 km/h (3 Bft) 95,74 %
21.05.2021 07:02 12,3 C 12,2 C 9,5 C 79 % 1005,7 hPa 0,0 l/m 0 min 0 min 70 W/m 12,9 km/h (3 Bft) 100,00 %
21.05.2021 07:04 12,3 C 12,2 C 9,5 C 79 % 1005,7 hPa 0,0 l/m 0 min 0 min 70 W/m 35,4 km/h (5 Bft) 100,00 %
21.05.2021 07:06 12,4 C 12,2 C 9,5 C 79 % 1005,7 hPa 0,0 l/m 0 min 0 min 69 W/m 19,3 km/h (3 Bft) 97,87 %
21.05.2021 07:08 12,4 C 12,2 C 9,5 C 79 % 1005,6 hPa 0,0 l/m 0 min 0 min 70 W/m 25,7 km/h (4 Bft) 93,62 %
21.05.2021 07:10 12,5 C 12,2 C 9,5 C 79 % 1005,6 hPa 0,0 l/m 0 min 0 min 64 W/m 19,3 km/h (3 Bft) 97,87 %
21.05.2021 07:12 12,5 C 12,2 C 10,0 C 79 % 1005,6 hPa 0,0 l/m 0 min 0 min 58 W/m 16,1 km/h (3 Bft) 97,83 %
21.05.2021 07:14 12,6 C 12,2 C 10,0 C 79 % 1005,6 hPa 0,0 l/m 0 min 0 min 60 W/m 16,1 km/h (3 Bft) 97,87 %
21.05.2021 07:16 12,6 C 12,2 C 10,0 C 79 % 1005,6 hPa 0,0 l/m 0 min 0 min 69 W/m 22,5 km/h (4 Bft) 97,87 %
21.05.2021 07:18 12,7 C 12,2 C 10,0 C 79 % 1005,6 hPa 0,0 l/m 0 min 0 min 82 W/m 29,0 km/h (5 Bft) 97,87 %
21.05.2021 07:20 12,7 C 12,2 C 10,0 C 79 % 1005,6 hPa 0,0 l/m 0 min 0 min 81 W/m 19,3 km/h (3 Bft) 97,87 %
21.05.2021 07:22 12,8 C 12,2 C 10,0 C 78 % 1005,6 hPa 0,0 l/m 0 min 0 min 68 W/m 29,0 km/h (5 Bft) 95,74 %
21.05.2021 07:24 12,8 C 12,8 C 10,0 C 79 % 1005,6 hPa 0,0 l/m 0 min 0 min 68 W/m 19,3 km/h (3 Bft) 95,65 %
21.05.2021 07:26 12,9 C 12,8 C 10,0 C 78 % 1005,6 hPa 0,0 l/m 0 min 0 min 78 W/m 19,3 km/h (3 Bft) 95,74 %
21.05.2021 07:28 12,9 C 12,8 C 10,0 C 78 % 1005,5 hPa 0,0 l/m 0 min 0 min 82 W/m 19,3 km/h (3 Bft) 93,62 %
21.05.2021 07:30 12,9 C 12,8 C 10,0 C 78 % 1005,5 hPa 0,0 l/m 0 min 0 min 69 W/m 22,5 km/h (4 Bft) 93,62 %
21.05.2021 07:32 12,9 C 12,8 C 10,0 C 78 % 1005,5 hPa 0,0 l/m 0 min 0 min 62 W/m 16,1 km/h (3 Bft) 91,49 %
21.05.2021 07:34 13,0 C 12,8 C 10,0 C 78 % 1005,5 hPa 0,0 l/m 0 min 0 min 61 W/m 19,3 km/h (3 Bft) 95,74 %
21.05.2021 07:36 13,0 C 12,8 C 10,0 C 78 % 1005,6 hPa 0,0 l/m 0 min 0 min 55 W/m 19,3 km/h (3 Bft) 95,65 %
21.05.2021 07:38 13,0 C 12,8 C 10,0 C 78 % 1005,5 hPa 0,0 l/m 0 min 0 min 46 W/m 19,3 km/h (3 Bft) 95,74 %
21.05.2021 07:40 13,0 C 12,8 C 10,0 C 78 % 1005,5 hPa 0,0 l/m 0 min 0 min 51 W/m 22,5 km/h (4 Bft) 93,62 %
21.05.2021 07:42 13,0 C 12,8 C 10,0 C 78 % 1005,4 hPa 0,0 l/m 0 min 0 min 55 W/m 16,1 km/h (3 Bft) 93,62 %
21.05.2021 07:44 13,0 C 12,8 C 10,0 C 78 % 1005,5 hPa 0,0 l/m 0 min 0 min 70 W/m 25,7 km/h (4 Bft) 95,74 %
21.05.2021 07:46 13,0 C 12,8 C 10,0 C 78 % 1005,4 hPa 0,0 l/m 0 min 0 min 61 W/m 25,7 km/h (4 Bft) 95,74 %
21.05.2021 07:48 13,1 C 12,8 C 10,0 C 78 % 1005,4 hPa 0,0 l/m 0 min 0 min 55 W/m 16,1 km/h (3 Bft) 95,65 %
21.05.2021 07:50 13,1 C 12,8 C 10,0 C 78 % 1005,5 hPa 0,0 l/m 0 min 0 min 64 W/m 22,5 km/h (4 Bft) 95,74 %
21.05.2021 07:52 13,1 C 12,8 C 10,0 C 78 % 1005,4 hPa 0,0 l/m 0 min 0 min 71 W/m 19,3 km/h (3 Bft) 95,74 %
21.05.2021 07:54 13,1 C 12,8 C 10,0 C 78 % 1005,4 hPa 0,0 l/m 0 min 0 min 73 W/m 22,5 km/h (4 Bft) 95,74 %
21.05.2021 07:56 13,1 C 12,8 C 10,0 C 78 % 1005,4 hPa 0,0 l/m 0 min 0 min 73 W/m 22,5 km/h (4 Bft) 97,87 %
21.05.2021 07:58 13,1 C 12,8 C 10,0 C 78 % 1005,4 hPa 0,0 l/m 0 min 0 min 80 W/m 16,1 km/h (3 Bft) 95,74 %
21.05.2021 08:00 13,1 C 12,8 C 10,0 C 78 % 1005,3 hPa 0,0 l/m 0 min 0 min 74 W/m 25,7 km/h (4 Bft) 97,83 %
21.05.2021 08:02 13,1 C 12,8 C 10,6 C 78 % 1005,4 hPa 0,0 l/m 0 min 0 min 95 W/m 16,1 km/h (3 Bft) 91,49 %
21.05.2021 08:04 13,2 C 12,8 C 10,6 C 78 % 1005,4 hPa 0,0 l/m 0 min 0 min 109 W/m 25,7 km/h (4 Bft) 93,62 %
21.05.2021 08:06 13,2 C 12,8 C 10,6 C 78 % 1005,3 hPa 0,0 l/m 0 min 0 min 102 W/m 25,7 km/h (4 Bft) 95,74 %
21.05.2021 08:08 13,3 C 12,8 C 10,6 C 78 % 1005,2 hPa 0,0 l/m 0 min 0 min 97 W/m 16,1 km/h (3 Bft) 87,23 %
21.05.2021 08:10 13,3 C 12,8 C 10,6 C 77 % 1005,2 hPa 0,0 l/m 0 min 0 min 101 W/m 22,5 km/h (4 Bft) 72,34 %
21.05.2021 08:12 13,3 C 12,8 C 10,6 C 77 % 1005,4 hPa 0,0 l/m 0 min 0 min 116 W/m 35,4 km/h (5 Bft) 91,30 %
21.05.2021 08:14 13,3 C 12,8 C 10,6 C 76 % 1005,4 hPa 0,0 l/m 0 min 0 min 128 W/m 32,2 km/h (5 Bft) 82,98 %
21.05.2021 08:16 13,3 C 12,8 C 10,6 C 77 % 1005,3 hPa 0,0 l/m 0 min 0 min 124 W/m 22,5 km/h (4 Bft) 93,62 %
21.05.2021 08:18 13,3 C 12,8 C 10,6 C 77 % 1005,3 hPa 0,0 l/m 0 min 0 min 115 W/m 25,7 km/h (4 Bft) 85,11 %
21.05.2021 08:20 13,3 C 13,3 C 10,6 C 77 % 1005,3 hPa 0,0 l/m 0 min 0 min 129 W/m 19,3 km/h (3 Bft) 85,11 %
21.05.2021 08:22 13,4 C 13,3 C 10,6 C 77 % 1005,2 hPa 0,0 l/m 0 min 0 min 135 W/m 22,5 km/h (4 Bft) 82,61 %
21.05.2021 08:24 13,4 C 13,3 C 10,6 C 77 % 1005,2 hPa 0,0 l/m 0 min 0 min 148 W/m 25,7 km/h (4 Bft) 100,00 %
21.05.2021 08:26 13,4 C 13,3 C 10,6 C 77 % 1005,2 hPa 0,0 l/m 0 min 0 min 169 W/m 25,7 km/h (4 Bft) 100,00 %
21.05.2021 08:28 13,4 C 13,3 C 10,6 C 76 % 1005,2 hPa 0,0 l/m 0 min 0 min 162 W/m 25,7 km/h (4 Bft) 93,62 %
21.05.2021 08:30 13,5 C 13,3 C 10,6 C 77 % 1005,3 hPa 0,0 l/m 0 min 0 min 159 W/m 25,7 km/h (4 Bft) 95,74 %
21.05.2021 08:32 13,5 C 13,3 C 10,6 C 77 % 1005,2 hPa 0,0 l/m 0 min 0 min 152 W/m 29,0 km/h (5 Bft) 98,11 %
21.05.2021 08:34 13,5 C 13,3 C 11,1 C 77 % 1005,3 hPa 0,0 l/m 0 min 0 min 153 W/m 19,3 km/h (3 Bft) 97,87 %
21.05.2021 08:36 13,5 C 13,3 C 11,1 C 76 % 1005,3 hPa 0,0 l/m 0 min 0 min 174 W/m 19,3 km/h (3 Bft) 97,83 %
21.05.2021 08:38 13,5 C 13,9 C 11,1 C 76 % 1005,2 hPa 0,0 l/m 0 min 0 min 207 W/m 41,8 km/h (6 Bft) 97,87 %
21.05.2021 08:40 13,5 C 13,9 C 11,1 C 76 % 1005,1 hPa 0,0 l/m 0 min 0 min 212 W/m 29,0 km/h (5 Bft) 97,87 %
21.05.2021 08:42 13,6 C 13,9 C 11,1 C 76 % 1005,1 hPa 0,0 l/m 0 min 0 min 196 W/m 16,1 km/h (3 Bft) 97,87 %
21.05.2021 08:44 13,6 C 13,9 C 11,1 C 76 % 1005,1 hPa 0,0 l/m 0 min 0 min 157 W/m 35,4 km/h (5 Bft) 97,87 %
21.05.2021 08:46 13,6 C 13,3 C 11,1 C 76 % 1005,2 hPa 0,0 l/m 0 min 0 min 161 W/m 19,3 km/h (3 Bft) 95,74 %
21.05.2021 08:48 13,6 C 13,9 C 11,1 C 76 % 1005,2 hPa 0,0 l/m 0 min 0 min 143 W/m 22,5 km/h (4 Bft) 95,65 %
21.05.2021 08:50 13,6 C 13,3 C 11,1 C 75 % 1005,2 hPa 0,0 l/m 0 min 0 min 160 W/m 48,3 km/h (6 Bft) 97,87 %
21.05.2021 08:52 13,6 C 13,9 C 11,1 C 76 % 1005,1 hPa 0,0 l/m 0 min 0 min 179 W/m 29,0 km/h (5 Bft) 97,87 %
21.05.2021 08:54 13,6 C 13,9 C 11,1 C 75 % 1005,2 hPa 0,0 l/m 0 min 0 min 221 W/m 45,1 km/h (6 Bft) 97,87 %
21.05.2021 08:56 13,7 C 14,4 C 11,7 C 75 % 1005,2 hPa 0,0 l/m 2 min 0 min 315 W/m 32,2 km/h (5 Bft) 97,87 %
21.05.2021 08:58 13,8 C 14,4 C 11,7 C 74 % 1005,2 hPa 0,0 l/m 2 min 0 min 642 W/m 38,6 km/h (5 Bft) 97,87 %
21.05.2021 09:00 13,8 C 13,9 C 11,7 C 73 % 1005,1 hPa 0,0 l/m 2 min 0 min 242 W/m 35,4 km/h (5 Bft) 97,83 %
21.05.2021 09:02 13,8 C 15,0 C 11,7 C 74 % 1005,2 hPa 0,0 l/m 2 min 0 min 332 W/m 25,7 km/h (4 Bft) 97,87 %
21.05.2021 09:04 13,9 C 15,6 C 12,3 C 74 % 1005,2 hPa 0,0 l/m 2 min 0 min 645 W/m 29,0 km/h (5 Bft) 95,74 %
21.05.2021 09:06 14,0 C 15,0 C 12,3 C 74 % 1005,3 hPa 0,0 l/m 2 min 0 min 589 W/m 22,5 km/h (4 Bft) 97,87 %
21.05.2021 09:08 14,0 C 14,4 C 11,7 C 74 % 1005,2 hPa 0,0 l/m 0 min 0 min 119 W/m 29,0 km/h (5 Bft) 97,87 %
21.05.2021 09:10 14,0 C 13,9 C 11,7 C 73 % 1005,2 hPa 0,0 l/m 0 min 0 min 102 W/m 22,5 km/h (4 Bft) 97,87 %
21.05.2021 09:12 13,9 C 13,9 C 11,1 C 73 % 1005,3 hPa 0,0 l/m 0 min 0 min 104 W/m 22,5 km/h (4 Bft) 95,65 %
21.05.2021 09:14 13,9 C 14,4 C 11,7 C 73 % 1005,2 hPa 0,0 l/m 0 min 0 min 245 W/m 19,3 km/h (3 Bft) 97,87 %
21.05.2021 09:16 13,9 C 15,6 C 12,3 C 74 % 1005,2 hPa 0,0 l/m 2 min 0 min 497 W/m 19,3 km/h (3 Bft) 97,87 %
21.05.2021 09:18 14,0 C 16,1 C 12,8 C 74 % 1005,2 hPa 0,0 l/m 2 min 0 min 269 W/m 35,4 km/h (5 Bft) 97,87 %
21.05.2021 09:20 14,0 C 16,7 C 13,4 C 73 % 1005,2 hPa 0,0 l/m 2 min 0 min 502 W/m 48,3 km/h (6 Bft) 95,74 %
21.05.2021 09:22 14,1 C 17,2 C 13,9 C 72 % 1005,2 hPa 0,0 l/m 2 min 0 min 633 W/m 35,4 km/h (5 Bft) 97,87 %
21.05.2021 09:24 14,2 C 17,8 C 14,5 C 73 % 1005,1 hPa 0,0 l/m 2 min 0 min 669 W/m 25,7 km/h (4 Bft) 97,83 %
21.05.2021 09:26 14,4 C 18,3 C 15,0 C 71 % 1005,2 hPa 0,0 l/m 2 min 0 min 709 W/m 29,0 km/h (5 Bft) 97,87 %
21.05.2021 09:28 14,5 C 17,8 C 15,6 C 71 % 1005,2 hPa 0,0 l/m 2 min 0 min 759 W/m 25,7 km/h (4 Bft) 97,87 %
21.05.2021 09:30 14,7 C 17,8 C 15,6 C 71 % 1005,2 hPa 0,0 l/m 2 min 0 min 755 W/m 38,6 km/h (5 Bft) 100,00 %
21.05.2021 09:32 14,8 C 17,2 C 15,0 C 70 % 1005,5 hPa 0,0 l/m 2 min 0 min 724 W/m 35,4 km/h (5 Bft) 100,00 %
21.05.2021 09:34 14,8 C 17,2 C 15,0 C 70 % 1005,2 hPa 0,0 l/m 2 min 0 min 728 W/m 41,8 km/h (6 Bft) 100,00 %
21.05.2021 09:36 14,9 C 17,8 C 16,1 C 70 % 1005,2 hPa 0,0 l/m 2 min 0 min 675 W/m 25,7 km/h (4 Bft) 100,00 %
21.05.2021 09:38 14,9 C 17,2 C 15,0 C 70 % 1005,2 hPa 0,0 l/m 2 min 0 min 701 W/m 29,0 km/h (5 Bft) 97,87 %
21.05.2021 09:40 14,9 C 16,7 C 15,0 C 69 % 1005,2 hPa 0,0 l/m 0 min 0 min 281 W/m 19,3 km/h (3 Bft) 100,00 %
21.05.2021 09:42 14,9 C 17,2 C 15,6 C 69 % 1005,2 hPa 0,0 l/m 2 min 0 min 724 W/m 16,1 km/h (3 Bft) 100,00 %
21.05.2021 09:44 15,0 C 18,3 C 16,1 C 70 % 1005,3 hPa 0,0 l/m 2 min 0 min 746 W/m 19,3 km/h (3 Bft) 100,00 %
21.05.2021 09:46 15,1 C 18,3 C 16,7 C 69 % 1005,3 hPa 0,0 l/m 2 min 0 min 745 W/m 19,3 km/h (3 Bft) 97,87 %
21.05.2021 09:48 15,2 C 18,3 C 16,7 C 70 % 1005,2 hPa 0,0 l/m 2 min 0 min 728 W/m 35,4 km/h (5 Bft) 97,83 %
21.05.2021 09:50 15,1 C 16,7 C 15,6 C 67 % 1005,2 hPa 0,0 l/m 2 min 0 min 561 W/m 45,1 km/h (6 Bft) 100,00 %
21.05.2021 09:52 15,0 C 15,6 C 14,5 C 68 % 1005,2 hPa 0,0 l/m 0 min 0 min 185 W/m 32,2 km/h (5 Bft) 100,00 %
21.05.2021 09:54 14,9 C 15,0 C 13,4 C 68 % 1005,2 hPa 0,0 l/m 0 min 0 min 185 W/m 29,0 km/h (5 Bft) 100,00 %
21.05.2021 09:56 14,7 C 14,4 C 13,4 C 68 % 1005,2 hPa 0,0 l/m 0 min 0 min 177 W/m 41,8 km/h (6 Bft) 100,00 %
21.05.2021 09:58 14,5 C 15,0 C 13,9 C 69 % 1005,2 hPa 0,0 l/m 0 min 0 min 181 W/m 19,3 km/h (3 Bft) 100,00 %
21.05.2021 10:00 14,6 C 16,1 C 15,0 C 69 % 1005,1 hPa 0,0 l/m 0 min 0 min 294 W/m 22,5 km/h (4 Bft) 100,00 %
21.05.2021 10:02 14,7 C 17,2 C 15,6 C 69 % 1005,1 hPa 0,0 l/m 2 min 0 min 788 W/m 29,0 km/h (5 Bft) 100,00 %
21.05.2021 10:04 14,8 C 16,7 C 16,1 C 68 % 1005,1 hPa 0,0 l/m 2 min 0 min 776 W/m 35,4 km/h (5 Bft) 95,74 %
21.05.2021 10:06 14,8 C 16,1 C 15,6 C 66 % 1005,1 hPa 0,0 l/m 2 min 0 min 837 W/m 54,7 km/h (7 Bft) 95,74 %
21.05.2021 10:08 14,8 C 15,6 C 15,0 C 66 % 1005,1 hPa 0,0 l/m 2 min 0 min 398 W/m 45,1 km/h (6 Bft) 95,74 %
21.05.2021 10:10 14,9 C 15,6 C 15,0 C 67 % 1005,1 hPa 0,0 l/m 0 min 0 min 254 W/m 29,0 km/h (5 Bft) 97,83 %
21.05.2021 10:12 14,9 C 16,1 C 15,0 C 67 % 1005,1 hPa 0,0 l/m 0 min 0 min 236 W/m 25,7 km/h (4 Bft) 97,87 %
21.05.2021 10:14 15,0 C 17,2 C 16,7 C 68 % 1005,1 hPa 0,0 l/m 2 min 0 min 385 W/m 25,7 km/h (4 Bft) 93,62 %
21.05.2021 10:16 15,1 C 17,2 C 17,8 C 66 % 1005,1 hPa 0,0 l/m 2 min 0 min 775 W/m 29,0 km/h (5 Bft) 95,74 %
21.05.2021 10:18 15,3 C 17,8 C 18,4 C 65 % 1005,1 hPa 0,0 l/m 2 min 0 min 809 W/m 25,7 km/h (4 Bft) 97,87 %
21.05.2021 10:20 15,3 C 17,2 C 17,8 C 64 % 1005,1 hPa 0,0 l/m 2 min 0 min 817 W/m 22,5 km/h (4 Bft) 97,87 %
21.05.2021 10:22 15,4 C 18,3 C 18,9 C 65 % 1005,1 hPa 0,0 l/m 2 min 0 min 802 W/m 29,0 km/h (5 Bft) 95,65 %
21.05.2021 10:24 15,5 C 18,9 C 20,0 C 66 % 1005,1 hPa 0,0 l/m 2 min 0 min 804 W/m 16,1 km/h (3 Bft) 95,74 %
21.05.2021 10:26 15,7 C 18,9 C 20,0 C 65 % 1005,0 hPa 0,0 l/m 2 min 0 min 806 W/m 41,8 km/h (6 Bft) 97,87 %
21.05.2021 10:28 15,7 C 18,3 C 20,0 C 62 % 1005,0 hPa 0,0 l/m 2 min 0 min 872 W/m 32,2 km/h (5 Bft) 97,87 %
21.05.2021 10:30 15,7 C 17,2 C 20,0 C 62 % 1005,1 hPa 0,0 l/m 2 min 0 min 890 W/m 54,7 km/h (7 Bft) 93,62 %
21.05.2021 10:32 15,6 C 17,2 C 20,0 C 63 % 1005,0 hPa 0,0 l/m 2 min 0 min 835 W/m 35,4 km/h (5 Bft) 97,87 %
21.05.2021 10:34 15,7 C 17,2 C 18,9 C 62 % 1005,0 hPa 0,0 l/m 2 min 0 min 517 W/m 35,4 km/h (5 Bft) 93,62 %
21.05.2021 10:36 15,7 C 16,7 C 18,9 C 61 % 1005,1 hPa 0,0 l/m 2 min 0 min 573 W/m 41,8 km/h (6 Bft) 97,83 %
21.05.2021 10:38 15,6 C 16,7 C 18,4 C 61 % 1005,0 hPa 0,0 l/m 2 min 0 min 752 W/m 57,9 km/h (7 Bft) 97,92 %
21.05.2021 10:40 15,6 C 16,1 C 17,3 C 61 % 1005,0 hPa 0,0 l/m 2 min 0 min 749 W/m 45,1 km/h (6 Bft) 97,87 %
21.05.2021 10:42 15,4 C 15,6 C 15,0 C 61 % 1005,1 hPa 0,0 l/m 2 min 0 min 372 W/m 57,9 km/h (7 Bft) 95,74 %
21.05.2021 10:44 15,1 C 14,4 C 13,9 C 61 % 1005,2 hPa 0,0 l/m 0 min 0 min 156 W/m 45,1 km/h (6 Bft) 95,74 %
21.05.2021 10:46 14,9 C 15,0 C 13,9 C 62 % 1005,1 hPa 0,0 l/m 0 min 0 min 195 W/m 29,0 km/h (5 Bft) 95,65 %
21.05.2021 10:48 14,9 C 15,6 C 14,5 C 63 % 1005,1 hPa 0,0 l/m 0 min 0 min 211 W/m 25,7 km/h (4 Bft) 97,87 %
21.05.2021 10:50 15,0 C 15,6 C 14,5 C 64 % 1005,1 hPa 0,0 l/m 0 min 0 min 284 W/m 25,7 km/h (4 Bft) 95,74 %
21.05.2021 10:52 15,0 C 15,6 C 13,9 C 64 % 1005,1 hPa 0,0 l/m 0 min 0 min 249 W/m 16,1 km/h (3 Bft) 97,87 %
21.05.2021 10:54 15,0 C 15,6 C 14,5 C 62 % 1005,2 hPa 0,0 l/m 0 min 0 min 284 W/m 41,8 km/h (6 Bft) 97,87 %
21.05.2021 10:56 15,0 C 16,1 C 14,5 C 61 % 1005,2 hPa 0,0 l/m 0 min 0 min 309 W/m 35,4 km/h (5 Bft) 97,87 %
21.05.2021 10:58 15,1 C 17,2 C 15,0 C 63 % 1005,1 hPa 0,0 l/m 2 min 0 min 1002 W/m 19,3 km/h (3 Bft) 97,83 %
21.05.2021 11:00 15,5 C 17,2 C 15,0 C 62 % 1005,1 hPa 0,0 l/m 2 min 0 min 812 W/m 22,5 km/h (4 Bft) 95,74 %
21.05.2021 11:02 15,6 C 17,2 C 15,6 C 62 % 1005,1 hPa 0,0 l/m 2 min 0 min 625 W/m 22,5 km/h (4 Bft) 97,87 %
21.05.2021 11:04 15,7 C 16,7 C 15,0 C 60 % 1005,1 hPa 0,0 l/m 2 min 0 min 889 W/m 38,6 km/h (5 Bft) 97,87 %
21.05.2021 11:06 15,6 C 16,1 C 14,5 C 59 % 1005,0 hPa 0,0 l/m 0 min 0 min 233 W/m 35,4 km/h (5 Bft) 95,74 %
21.05.2021 11:08 15,6 C 16,1 C 14,5 C 59 % 1005,1 hPa 0,0 l/m 2 min 0 min 542 W/m 32,2 km/h (5 Bft) 97,92 %
21.05.2021 11:10 15,6 C 16,7 C 14,5 C 60 % 1005,2 hPa 0,0 l/m 2 min 0 min 438 W/m 32,2 km/h (5 Bft) 97,83 %
21.05.2021 11:12 15,7 C 16,1 C 14,5 C 59 % 1005,3 hPa 0,0 l/m 2 min 0 min 998 W/m 19,3 km/h (3 Bft) 54,35 %
21.05.2021 11:14 15,6 C 15,6 C 13,9 C 58 % 1005,1 hPa 0,0 l/m 2 min 0 min 652 W/m 19,3 km/h (3 Bft) 97,87 %
21.05.2021 11:16 15,5 C 15,6 C 13,9 C 60 % 1005,3 hPa 0,0 l/m 0 min 0 min 219 W/m 32,2 km/h (5 Bft) 97,87 %
21.05.2021 11:18 15,4 C 15,0 C 13,4 C 59 % 1005,2 hPa 0,0 l/m 0 min 0 min 169 W/m 41,8 km/h (6 Bft) 97,87 %
21.05.2021 11:20 15,2 C 15,0 C 12,8 C 59 % 1005,2 hPa 0,0 l/m 0 min 0 min 153 W/m 32,2 km/h (5 Bft) 97,87 %
21.05.2021 11:22 15,1 C 15,6 C 13,4 C 60 % 1005,1 hPa 0,0 l/m 0 min 0 min 206 W/m 35,4 km/h (5 Bft) 97,83 %
21.05.2021 11:24 15,1 C 15,6 C 13,9 C 62 % 1005,1 hPa 0,0 l/m 0 min 0 min 215 W/m 19,3 km/h (3 Bft) 97,87 %
21.05.2021 11:26 15,1 C 15,6 C 13,4 C 61 % 1005,2 hPa 0,0 l/m 0 min 0 min 202 W/m 35,4 km/h (5 Bft) 95,74 %
21.05.2021 11:28 15,1 C 15,0 C 13,4 C 60 % 1005,2 hPa 0,0 l/m 0 min 0 min 174 W/m 25,7 km/h (4 Bft) 95,74 %
21.05.2021 11:30 15,0 C 15,0 C 12,8 C 60 % 1005,2 hPa 0,0 l/m 0 min 0 min 170 W/m 29,0 km/h (5 Bft) 97,87 %
21.05.2021 11:32 14,9 C 15,0 C 12,8 C 61 % 1005,2 hPa 0,0 l/m 0 min 0 min 183 W/m 19,3 km/h (3 Bft) 97,87 %
21.05.2021 11:34 14,9 C 15,0 C 12,8 C 61 % 1005,2 hPa 0,0 l/m 0 min 0 min 163 W/m 12,9 km/h (3 Bft) 97,83 %
21.05.2021 11:36 14,9 C 14,4 C 12,8 C 61 % 1005,3 hPa 0,0 l/m 0 min 0 min 161 W/m 38,6 km/h (5 Bft) 93,62 %
21.05.2021 11:38 14,8 C 14,4 C 12,8 C 61 % 1005,2 hPa 0,0 l/m 0 min 0 min 218 W/m 57,9 km/h (7 Bft) 97,87 %
21.05.2021 11:40 14,8 C 14,4 C 12,8 C 62 % 1005,2 hPa 0,0 l/m 0 min 0 min 247 W/m 29,0 km/h (5 Bft) 97,87 %
21.05.2021 11:42 14,8 C 15,0 C 12,8 C 63 % 1005,2 hPa 0,0 l/m 0 min 0 min 264 W/m 19,3 km/h (3 Bft) 97,87 %
21.05.2021 11:44 14,9 C 15,6 C 14,5 C 62 % 1005,3 hPa 0,0 l/m 2 min 0 min 419 W/m 51,5 km/h (7 Bft) 97,87 %
21.05.2021 11:46 15,0 C 16,1 C 15,0 C 62 % 1005,2 hPa 0,0 l/m 2 min 0 min 986 W/m 41,8 km/h (6 Bft) 95,65 %
21.05.2021 11:48 15,2 C 17,2 C 16,1 C 63 % 1005,2 hPa 0,0 l/m 2 min 0 min 983 W/m 29,0 km/h (5 Bft) 97,87 %
21.05.2021 11:50 15,4 C 16,7 C 15,6 C 61 % 1005,2 hPa 0,0 l/m 2 min 0 min 592 W/m 29,0 km/h (5 Bft) 97,87 %
21.05.2021 11:52 15,4 C 15,6 C 14,5 C 60 % 1005,2 hPa 0,0 l/m 0 min 0 min 171 W/m 57,9 km/h (7 Bft) 97,87 %
21.05.2021 11:54 15,3 C 15,6 C 13,4 C 60 % 1005,4 hPa 0,0 l/m 0 min 0 min 188 W/m 38,6 km/h (5 Bft) 100,00 %
21.05.2021 11:56 15,1 C 15,0 C 13,4 C 60 % 1005,3 hPa 0,0 l/m 0 min 0 min 242 W/m 45,1 km/h (6 Bft) 100,00 %
21.05.2021 11:58 15,1 C 15,0 C 13,4 C 60 % 1005,2 hPa 0,0 l/m 0 min 0 min 282 W/m 48,3 km/h (6 Bft) 100,00 %
21.05.2021 12:00 15,0 C 15,0 C 12,8 C 59 % 1005,2 hPa 0,0 l/m 0 min 0 min 268 W/m 32,2 km/h (5 Bft) 100,00 %
21.05.2021 12:02 15,0 C 15,0 C 13,4 C 59 % 1005,2 hPa 0,0 l/m 0 min 0 min 293 W/m 45,1 km/h (6 Bft) 95,83 %
21.05.2021 12:04 15,0 C 15,0 C 12,8 C 60 % 1005,1 hPa 0,0 l/m 0 min 0 min 287 W/m 29,0 km/h (5 Bft) 97,87 %
21.05.2021 12:08 15,1 C 15,6 C 13,9 C 61 % 1005,2 hPa 0,0 l/m 0 min 0 min 378 W/m 25,7 km/h (4 Bft) 97,85 %
21.05.2021 12:10 15,2 C 16,1 C 15,6 C 59 % 1005,2 hPa 0,0 l/m 2 min 0 min 445 W/m 32,2 km/h (5 Bft) 97,87 %
21.05.2021 12:12 15,4 C 17,2 C 17,3 C 57 % 1005,2 hPa 0,0 l/m 2 min 0 min 675 W/m 38,6 km/h (5 Bft) 97,87 %
21.05.2021 12:14 15,6 C 16,7 C 17,3 C 57 % 1005,1 hPa 0,0 l/m 2 min 0 min 640 W/m 38,6 km/h (5 Bft) 97,87 %
21.05.2021 12:16 15,8 C 17,8 C 19,5 C 58 % 1005,2 hPa 0,0 l/m 2 min 0 min 582 W/m 25,7 km/h (4 Bft) 97,87 %
21.05.2021 12:18 16,0 C 18,3 C 20,6 C 58 % 1005,2 hPa 0,0 l/m 2 min 0 min 1066 W/m 25,7 km/h (4 Bft) 97,87 %
21.05.2021 12:20 16,3 C 18,3 C 21,7 C 57 % 1005,1 hPa 0,0 l/m 2 min 0 min 1103 W/m 35,4 km/h (5 Bft) 97,83 %
21.05.2021 12:22 16,4 C 18,3 C 21,7 C 56 % 1005,1 hPa 0,0 l/m 2 min 0 min 707 W/m 35,4 km/h (5 Bft) 100,00 %
21.05.2021 12:24 16,5 C 17,8 C 19,5 C 57 % 1005,1 hPa 0,0 l/m 2 min 0 min 501 W/m 35,4 km/h (5 Bft) 100,00 %
21.05.2021 12:26 16,4 C 17,2 C 17,8 C 55 % 1005,1 hPa 0,0 l/m 2 min 0 min 501 W/m 41,8 km/h (6 Bft) 97,87 %
21.05.2021 12:28 16,4 C 17,8 C 19,5 C 57 % 1005,1 hPa 0,0 l/m 2 min 0 min 501 W/m 22,5 km/h (4 Bft) 100,00 %
21.05.2021 12:30 16,5 C 17,8 C 18,4 C 58 % 1005,2 hPa 0,0 l/m 2 min 0 min 406 W/m 22,5 km/h (4 Bft) 95,74 %
21.05.2021 12:32 16,5 C 16,7 C 17,3 C 54 % 1005,2 hPa 0,0 l/m 0 min 0 min 303 W/m 61,2 km/h (7 Bft) 97,83 %
21.05.2021 12:34 16,4 C 16,7 C 16,7 C 56 % 1005,0 hPa 0,0 l/m 0 min 0 min 315 W/m 25,7 km/h (4 Bft) 97,87 %
21.05.2021 12:36 16,4 C 17,2 C 18,9 C 56 % 1005,0 hPa 0,0 l/m 0 min 0 min 315 W/m 29,0 km/h (5 Bft) 93,62 %
21.05.2021 12:38 16,3 C 16,7 C 16,7 C 55 % 1005,2 hPa 0,0 l/m 0 min 0 min 298 W/m 77,2 km/h (9 Bft) 91,49 %
21.05.2021 12:40 16,1 C 16,7 C 17,3 C 54 % 1005,0 hPa 0,0 l/m 2 min 0 min 419 W/m 67,6 km/h (8 Bft) 95,74 %
21.05.2021 12:42 16,0 C 16,7 C 18,4 C 55 % 1005,2 hPa 0,0 l/m 2 min 0 min 558 W/m 64,4 km/h (8 Bft) 95,74 %
21.05.2021 12:44 16,0 C 16,7 C 16,7 C 55 % 1005,1 hPa 0,0 l/m 2 min 0 min 478 W/m 41,8 km/h (6 Bft) 95,65 %
21.05.2021 12:46 16,0 C 16,7 C 17,8 C 58 % 1005,0 hPa 0,0 l/m 2 min 0 min 505 W/m 25,7 km/h (4 Bft) 95,74 %
21.05.2021 12:48 16,1 C 17,2 C 20,0 C 57 % 1005,0 hPa 0,0 l/m 2 min 0 min 615 W/m 38,6 km/h (5 Bft) 93,62 %
21.05.2021 12:50 16,2 C 16,7 C 18,9 C 56 % 1005,0 hPa 0,0 l/m 2 min 0 min 547 W/m 61,2 km/h (7 Bft) 95,74 %
21.05.2021 12:52 16,1 C 16,7 C 20,0 C 57 % 1005,0 hPa 0,0 l/m 2 min 0 min 533 W/m 35,4 km/h (5 Bft) 95,74 %
21.05.2021 12:54 16,3 C 17,2 C 21,1 C 57 % 1005,0 hPa 0,0 l/m 2 min 0 min 975 W/m 38,6 km/h (5 Bft) 97,87 %
21.05.2021 12:56 16,5 C 17,8 C 23,4 C 58 % 1004,9 hPa 0,0 l/m 2 min 0 min 960 W/m 29,0 km/h (5 Bft) 95,65 %
21.05.2021 12:58 16,6 C 17,8 C 23,4 C 56 % 1005,0 hPa 0,0 l/m 2 min 0 min 960 W/m 54,7 km/h (7 Bft) 97,87 %
21.05.2021 13:00 16,7 C 17,8 C 23,9 C 57 % 1005,0 hPa 0,0 l/m 2 min 0 min 963 W/m 29,0 km/h (5 Bft) 95,74 %
21.05.2021 13:02 16,8 C 17,8 C 24,5 C 55 % 1005,0 hPa 0,0 l/m 2 min 0 min 978 W/m 51,5 km/h (7 Bft) 95,74 %
21.05.2021 13:04 16,8 C 17,8 C 23,9 C 54 % 1005,0 hPa 0,0 l/m 2 min 0 min 982 W/m 48,3 km/h (6 Bft) 97,87 %
21.05.2021 13:06 16,9 C 17,8 C 24,5 C 55 % 1004,9 hPa 0,0 l/m 2 min 0 min 993 W/m 45,1 km/h (6 Bft) 95,74 %
21.05.2021 13:08 16,9 C 17,8 C 23,9 C 54 % 1005,0 hPa 0,0 l/m 2 min 0 min 1028 W/m 41,8 km/h (6 Bft) 97,83 %
21.05.2021 13:10 16,9 C 18,3 C 24,5 C 53 % 1005,0 hPa 0,0 l/m 2 min 0 min 1063 W/m 35,4 km/h (5 Bft) 93,62 %
21.05.2021 13:12 17,0 C 18,3 C 23,4 C 53 % 1005,0 hPa 0,0 l/m 2 min 0 min 1065 W/m 38,6 km/h (5 Bft) 95,74 %
21.05.2021 13:14 17,1 C 18,3 C 24,5 C 53 % 1004,8 hPa 0,0 l/m 2 min 0 min 1049 W/m 29,0 km/h (5 Bft) 97,87 %
21.05.2021 13:16 17,2 C 18,3 C 25,0 C 52 % 1004,7 hPa 0,0 l/m 2 min 0 min 1004 W/m 48,3 km/h (6 Bft) 97,87 %
21.05.2021 13:18 17,3 C 18,3 C 25,0 C 52 % 1004,7 hPa 0,0 l/m 2 min 0 min 996 W/m 48,3 km/h (6 Bft) 97,87 %
21.05.2021 13:20 17,3 C 18,3 C 24,5 C 52 % 1004,8 hPa 0,0 l/m 2 min 0 min 975 W/m 51,5 km/h (7 Bft) 95,65 %
21.05.2021 13:22 17,2 C 18,3 C 24,5 C 51 % 1004,8 hPa 0,0 l/m 2 min 0 min 990 W/m 48,3 km/h (6 Bft) 97,87 %
21.05.2021 13:24 17,1 C 18,3 C 25,0 C 52 % 1004,8 hPa 0,0 l/m 2 min 0 min 1011 W/m 54,7 km/h (7 Bft) 95,74 %
21.05.2021 13:26 17,1 C 17,8 C 21,7 C 52 % 1004,7 hPa 0,0 l/m 2 min 0 min 852 W/m 45,1 km/h (6 Bft) 100,00 %
21.05.2021 13:28 17,0 C 17,8 C 21,7 C 52 % 1004,6 hPa 0,0 l/m 0 min 0 min 253 W/m 29,0 km/h (5 Bft) 100,00 %
21.05.2021 13:30 17,1 C 18,3 C 21,7 C 54 % 1004,6 hPa 0,0 l/m 0 min 0 min 254 W/m 22,5 km/h (4 Bft) 100,00 %
21.05.2021 13:32 17,3 C 18,3 C 21,1 C 53 % 1004,6 hPa 0,0 l/m 0 min 0 min 275 W/m 19,3 km/h (3 Bft) 97,83 %
21.05.2021 13:34 17,4 C 18,3 C 20,0 C 52 % 1004,5 hPa 0,0 l/m 0 min 0 min 279 W/m 22,5 km/h (4 Bft) 100,00 %
21.05.2021 13:36 17,4 C 18,9 C 21,7 C 51 % 1004,5 hPa 0,0 l/m 2 min 0 min 757 W/m 35,4 km/h (5 Bft) 100,00 %
21.05.2021 13:38 17,5 C 18,9 C 21,7 C 51 % 1004,6 hPa 0,0 l/m 2 min 0 min 1163 W/m 51,5 km/h (7 Bft) 100,00 %
21.05.2021 13:40 17,5 C 18,3 C 20,6 C 52 % 1004,6 hPa 0,0 l/m 0 min 0 min 403 W/m 41,8 km/h (6 Bft) 100,00 %
21.05.2021 13:42 17,6 C 19,4 C 22,8 C 54 % 1004,6 hPa 0,0 l/m 2 min 0 min 1076 W/m 25,7 km/h (4 Bft) 100,00 %
21.05.2021 13:44 17,9 C 20,0 C 24,5 C 53 % 1004,6 hPa 0,0 l/m 2 min 0 min 1059 W/m 35,4 km/h (5 Bft) 100,00 %
21.05.2021 13:46 17,9 C 19,4 C 23,4 C 51 % 1004,5 hPa 0,0 l/m 2 min 0 min 1053 W/m 45,1 km/h (6 Bft) 100,00 %
21.05.2021 13:48 17,8 C 19,4 C 21,7 C 51 % 1004,5 hPa 0,0 l/m 2 min 0 min 1069 W/m 35,4 km/h (5 Bft) 100,00 %
21.05.2021 13:50 17,9 C 19,4 C 20,6 C 51 % 1004,8 hPa 0,0 l/m 2 min 0 min 1057 W/m 41,8 km/h (6 Bft) 100,00 %
21.05.2021 13:52 17,9 C 19,4 C 19,5 C 52 % 1004,6 hPa 0,0 l/m 2 min 0 min 748 W/m 41,8 km/h (6 Bft) 100,00 %
21.05.2021 13:54 17,8 C 18,9 C 18,4 C 52 % 1004,4 hPa 0,0 l/m 0 min 0 min 411 W/m 41,8 km/h (6 Bft) 100,00 %
21.05.2021 13:56 17,8 C 18,3 C 17,8 C 51 % 1004,5 hPa 0,0 l/m 2 min 0 min 414 W/m 51,5 km/h (7 Bft) 100,00 %
21.05.2021 13:58 17,6 C 18,9 C 17,3 C 53 % 1004,4 hPa 0,0 l/m 0 min 0 min 317 W/m 32,2 km/h (5 Bft) 100,00 %
21.05.2021 14:00 17,6 C 19,4 C 16,7 C 53 % 1004,6 hPa 0,0 l/m 2 min 0 min 1066 W/m 45,1 km/h (6 Bft) 100,00 %
21.05.2021 14:02 17,7 C 19,4 C 16,7 C 52 % 1004,5 hPa 0,0 l/m 2 min 0 min 1047 W/m 54,7 km/h (7 Bft) 100,00 %
21.05.2021 14:04 17,8 C 19,4 C 16,7 C 51 % 1004,3 hPa 0,0 l/m 2 min 0 min 1056 W/m 51,5 km/h (7 Bft) 100,00 %
21.05.2021 14:06 17,8 C 19,4 C 16,1 C 52 % 1004,3 hPa 0,0 l/m 2 min 0 min 1057 W/m 51,5 km/h (7 Bft) 100,00 %
21.05.2021 14:08 17,9 C 19,4 C 16,7 C 53 % 1004,4 hPa 0,0 l/m 2 min 0 min 1062 W/m 32,2 km/h (5 Bft) 100,00 %
21.05.2021 14:10 18,0 C 19,4 C 16,7 C 53 % 1004,4 hPa 0,0 l/m 2 min 0 min 1062 W/m 22,5 km/h (4 Bft) 100,00 %
21.05.2021 14:12 17,9 C 18,3 C 16,1 C 50 % 1004,4 hPa 0,0 l/m 2 min 0 min 577 W/m 48,3 km/h (6 Bft) 100,00 %
21.05.2021 14:14 17,5 C 17,8 C 16,1 C 49 % 1004,4 hPa 0,0 l/m 0 min 0 min 399 W/m 51,5 km/h (7 Bft) 97,87 %
21.05.2021 14:16 17,4 C 17,2 C 15,6 C 50 % 1004,3 hPa 0,0 l/m 0 min 0 min 384 W/m 54,7 km/h (7 Bft) 97,87 %
21.05.2021 14:18 17,3 C 17,2 C 15,6 C 51 % 1004,3 hPa 0,0 l/m 0 min 0 min 297 W/m 41,8 km/h (6 Bft) 97,83 %
21.05.2021 14:20 17,2 C 17,2 C 15,6 C 51 % 1004,4 hPa 0,0 l/m 0 min 0 min 302 W/m 41,8 km/h (6 Bft) 97,87 %
21.05.2021 14:22 17,0 C 17,8 C 15,6 C 51 % 1004,4 hPa 0,0 l/m 2 min 0 min 435 W/m 54,7 km/h (7 Bft) 100,00 %
21.05.2021 14:24 17,1 C 18,3 C 15,6 C 52 % 1004,3 hPa 0,0 l/m 2 min 0 min 1042 W/m 45,1 km/h (6 Bft) 100,00 %
21.05.2021 14:26 17,3 C 19,4 C 15,6 C 52 % 1004,3 hPa 0,0 l/m 2 min 0 min 1025 W/m 38,6 km/h (5 Bft) 100,00 %
21.05.2021 14:28 17,5 C 19,4 C 15,6 C 52 % 1004,4 hPa 0,0 l/m 2 min 0 min 1034 W/m 35,4 km/h (5 Bft) 100,00 %
21.05.2021 14:30 17,7 C 19,4 C 15,6 C 52 % 1004,2 hPa 0,0 l/m 2 min 0 min 1035 W/m 35,4 km/h (5 Bft) 100,00 %
21.05.2021 14:32 17,9 C 20,0 C 16,1 C 52 % 1004,1 hPa 0,0 l/m 2 min 0 min 1138 W/m 51,5 km/h (7 Bft) 100,00 %
21.05.2021 14:34 17,9 C 20,0 C 16,1 C 50 % 1004,2 hPa 0,0 l/m 2 min 0 min 834 W/m 48,3 km/h (6 Bft) 95,74 %
21.05.2021 14:36 17,9 C 19,4 C 16,1 C 50 % 1004,2 hPa 0,0 l/m 2 min 0 min 956 W/m 35,4 km/h (5 Bft) 97,87 %
21.05.2021 14:38 17,8 C 18,9 C 16,1 C 51 % 1004,2 hPa 0,0 l/m 0 min 0 min 250 W/m 41,8 km/h (6 Bft) 97,87 %
21.05.2021 14:40 17,9 C 19,4 C 16,1 C 52 % 1004,2 hPa 0,0 l/m 0 min 0 min 248 W/m 29,0 km/h (5 Bft) 100,00 %
21.05.2021 14:42 17,9 C 19,4 C 16,1 C 52 % 1004,2 hPa 0,0 l/m 0 min 0 min 248 W/m 25,7 km/h (4 Bft) 97,83 %
21.05.2021 14:44 18,1 C 19,4 C 16,1 C 50 % 1004,1 hPa 0,0 l/m 2 min 0 min 889 W/m 48,3 km/h (6 Bft) 93,62 %
21.05.2021 14:46 18,0 C 19,4 C 15,6 C 49 % 1004,3 hPa 0,0 l/m 2 min 0 min 1002 W/m 41,8 km/h (6 Bft) 95,74 %
21.05.2021 14:48 17,9 C 19,4 C 15,6 C 50 % 1004,0 hPa 0,0 l/m 2 min 0 min 1006 W/m 38,6 km/h (5 Bft) 97,87 %
21.05.2021 14:50 18,0 C 20,0 C 16,1 C 52 % 1004,1 hPa 0,0 l/m 2 min 0 min 1000 W/m 22,5 km/h (4 Bft) 100,00 %
21.05.2021 14:52 18,2 C 20,6 C 16,1 C 51 % 1004,1 hPa 0,0 l/m 2 min 0 min 1004 W/m 35,4 km/h (5 Bft) 95,65 %
21.05.2021 14:54 18,3 C 19,4 C 16,1 C 49 % 1004,2 hPa 0,0 l/m 2 min 0 min 1060 W/m 51,5 km/h (7 Bft) 95,74 %
21.05.2021 14:56 18,0 C 18,3 C 15,6 C 49 % 1004,1 hPa 0,0 l/m 2 min 0 min 415 W/m 41,8 km/h (6 Bft) 97,87 %
21.05.2021 14:58 17,9 C 18,3 C 15,6 C 50 % 1004,1 hPa 0,0 l/m 0 min 0 min 303 W/m 38,6 km/h (5 Bft) 97,87 %
21.05.2021 15:00 17,7 C 17,8 C 15,6 C 51 % 1004,1 hPa 0,0 l/m 0 min 0 min 285 W/m 38,6 km/h (5 Bft) 95,74 %
21.05.2021 15:02 17,6 C 18,3 C 15,6 C 51 % 1004,2 hPa 0,0 l/m 0 min 0 min 352 W/m 41,8 km/h (6 Bft) 95,74 %
21.05.2021 15:04 17,8 C 19,4 C 16,1 C 52 % 1004,1 hPa 0,0 l/m 0 min 0 min 359 W/m 29,0 km/h (5 Bft) 97,83 %
21.05.2021 15:06 18,0 C 20,0 C 16,1 C 52 % 1004,6 hPa 0,0 l/m 2 min 0 min 843 W/m 25,7 km/h (4 Bft) 95,74 %
21.05.2021 15:08 18,1 C 19,4 C 16,1 C 51 % 1004,0 hPa 0,0 l/m 2 min 0 min 1025 W/m 38,6 km/h (5 Bft) 95,74 %
21.05.2021 15:10 18,2 C 20,6 C 16,1 C 51 % 1004,0 hPa 0,0 l/m 2 min 0 min 1050 W/m 32,2 km/h (5 Bft) 97,87 %
21.05.2021 15:12 18,4 C 20,6 C 16,1 C 51 % 1004,0 hPa 0,0 l/m 2 min 0 min 1012 W/m 35,4 km/h (5 Bft) 95,74 %
21.05.2021 15:14 18,5 C 20,6 C 16,1 C 51 % 1004,0 hPa 0,0 l/m 2 min 0 min 416 W/m 35,4 km/h (5 Bft) 95,74 %
21.05.2021 15:16 18,6 C 20,0 C 16,1 C 51 % 1003,9 hPa 0,0 l/m 2 min 0 min 806 W/m 32,2 km/h (5 Bft) 95,65 %
21.05.2021 15:18 18,6 C 19,4 C 16,1 C 49 % 1004,0 hPa 0,0 l/m 0 min 0 min 328 W/m 45,1 km/h (6 Bft) 93,62 %
21.05.2021 15:20 18,4 C 18,9 C 16,1 C 49 % 1004,0 hPa 0,0 l/m 0 min 0 min 323 W/m 32,2 km/h (5 Bft) 95,74 %
21.05.2021 15:22 18,3 C 18,3 C 15,6 C 50 % 1003,9 hPa 0,0 l/m 0 min 0 min 269 W/m 38,6 km/h (5 Bft) 94,29 %
21.05.2021 15:24 18,0 C 17,8 C 15,6 C 50 % 1004,0 hPa 0,0 l/m 0 min 0 min 239 W/m 25,7 km/h (4 Bft) 89,83 %
21.05.2021 15:26 17,9 C 17,8 C 15,6 C 50 % 1004,0 hPa 0,0 l/m 0 min 0 min 273 W/m 35,4 km/h (5 Bft) 89,36 %
21.05.2021 15:28 17,8 C 17,8 C 15,6 C 50 % 1004,0 hPa 0,0 l/m 0 min 0 min 289 W/m 22,5 km/h (4 Bft) 93,48 %
21.05.2021 15:30 17,8 C 18,9 C 15,6 C 50 % 1004,0 hPa 0,0 l/m 2 min 0 min 505 W/m 41,8 km/h (6 Bft) 93,62 %
21.05.2021 15:32 17,9 C 20,0 C 15,6 C 51 % 1004,0 hPa 0,0 l/m 2 min 0 min 954 W/m 41,8 km/h (6 Bft) 91,43 %
21.05.2021 15:34 18,1 C 19,4 C 15,6 C 51 % 1004,0 hPa 0,0 l/m 2 min 0 min 921 W/m 35,4 km/h (5 Bft) 93,22 %
21.05.2021 15:36 18,0 C 18,3 C 15,6 C 50 % 1003,9 hPa 0,0 l/m 2 min 0 min 666 W/m 32,2 km/h (5 Bft) 87,23 %
21.05.2021 15:38 18,0 C 18,3 C 15,6 C 51 % 1003,9 hPa 0,0 l/m 0 min 0 min 215 W/m 19,3 km/h (3 Bft) 93,62 %
21.05.2021 15:40 18,0 C 18,9 C 15,6 C 52 % 1004,0 hPa 0,0 l/m 2 min 0 min 383 W/m 29,0 km/h (5 Bft) 88,57 %
21.05.2021 15:42 18,0 C 18,9 C 15,6 C 51 % 1004,0 hPa 0,0 l/m 2 min 0 min 716 W/m 22,5 km/h (4 Bft) 93,10 %
21.05.2021 15:44 18,0 C 19,4 C 15,6 C 51 % 1004,0 hPa 0,0 l/m 2 min 0 min 608 W/m 32,2 km/h (5 Bft) 93,62 %
21.05.2021 15:46 18,1 C 18,9 C 15,6 C 51 % 1004,1 hPa 0,0 l/m 2 min 0 min 650 W/m 19,3 km/h (3 Bft) 91,43 %
21.05.2021 15:48 18,1 C 18,9 C 15,6 C 51 % 1004,0 hPa 0,0 l/m 2 min 0 min 386 W/m 29,0 km/h (5 Bft) 93,22 %
21.05.2021 15:50 18,0 C 17,8 C 15,6 C 50 % 1004,0 hPa 0,0 l/m 0 min 0 min 253 W/m 51,5 km/h (7 Bft) 93,62 %
21.05.2021 15:52 17,9 C 18,3 C 15,6 C 50 % 1003,9 hPa 0,0 l/m 0 min 0 min 262 W/m 45,1 km/h (6 Bft) 93,48 %
21.05.2021 15:54 17,9 C 18,9 C 15,6 C 52 % 1004,0 hPa 0,0 l/m 0 min 0 min 262 W/m 45,1 km/h (6 Bft) 93,48 %
21.05.2021 15:56 17,9 C 19,4 C 15,6 C 52 % 1004,0 hPa 0,0 l/m 0 min 0 min 330 W/m 54,7 km/h (7 Bft) 95,74 %
21.05.2021 15:58 18,0 C 20,6 C 15,6 C 51 % 1003,9 hPa 0,0 l/m 2 min 0 min 912 W/m 41,8 km/h (6 Bft) 97,14 %
21.05.2021 16:00 18,3 C 21,7 C 16,1 C 52 % 1003,9 hPa 0,0 l/m 2 min 0 min 892 W/m 22,5 km/h (4 Bft) 97,87 %
21.05.2021 16:02 18,5 C 21,7 C 16,1 C 50 % 1003,8 hPa 0,0 l/m 2 min 0 min 895 W/m 41,8 km/h (6 Bft) 98,31 %
21.05.2021 16:04 18,5 C 21,1 C 16,1 C 49 % 1003,8 hPa 0,0 l/m 2 min 0 min 896 W/m 74,0 km/h (8 Bft) 93,48 %
21.05.2021 16:06 18,6 C 21,7 C 16,1 C 49 % 1003,7 hPa 0,0 l/m 2 min 0 min 863 W/m 67,6 km/h (8 Bft) 95,74 %
21.05.2021 16:08 18,7 C 22,2 C 16,1 C 49 % 1003,7 hPa 0,0 l/m 2 min 0 min 844 W/m 25,7 km/h (4 Bft) 97,87 %
21.05.2021 16:10 18,8 C 22,8 C 16,7 C 50 % 1003,7 hPa 0,0 l/m 2 min 0 min 849 W/m 29,0 km/h (5 Bft) 97,87 %
21.05.2021 16:12 18,9 C 22,2 C 16,7 C 48 % 1003,8 hPa 0,0 l/m 2 min 0 min 879 W/m 54,7 km/h (7 Bft) 97,87 %
21.05.2021 16:14 18,9 C 22,2 C 16,7 C 47 % 1003,7 hPa 0,0 l/m 2 min 0 min 926 W/m 38,6 km/h (5 Bft) 100,00 %
21.05.2021 16:16 18,9 C 21,7 C 16,7 C 47 % 1003,7 hPa 0,0 l/m 2 min 0 min 931 W/m 45,1 km/h (6 Bft) 96,55 %
21.05.2021 16:18 18,9 C 22,8 C 16,7 C 48 % 1003,6 hPa 0,0 l/m 2 min 0 min 919 W/m 51,5 km/h (7 Bft) 97,22 %
21.05.2021 16:20 19,0 C 22,2 C 16,7 C 48 % 1003,5 hPa 0,0 l/m 2 min 0 min 874 W/m 29,0 km/h (5 Bft) 100,00 %
21.05.2021 16:22 19,1 C 22,8 C 17,3 C 48 % 1003,6 hPa 0,0 l/m 2 min 0 min 861 W/m 41,8 km/h (6 Bft) 100,00 %
21.05.2021 16:24 19,2 C 21,1 C 16,7 C 47 % 1003,4 hPa 0,0 l/m 2 min 0 min 838 W/m 22,5 km/h (4 Bft) 97,87 %
21.05.2021 16:26 18,9 C 18,9 C 16,1 C 47 % 1003,6 hPa 0,0 l/m 0 min 0 min 181 W/m 48,3 km/h (6 Bft) 100,00 %
21.05.2021 16:28 18,6 C 18,9 C 15,6 C 48 % 1003,7 hPa 0,0 l/m 0 min 0 min 220 W/m 54,7 km/h (7 Bft) 100,00 %
21.05.2021 16:30 18,5 C 21,1 C 16,1 C 49 % 1003,6 hPa 0,0 l/m 2 min 0 min 525 W/m 29,0 km/h (5 Bft) 100,00 %
21.05.2021 16:32 18,6 C 21,7 C 16,1 C 49 % 1003,7 hPa 0,0 l/m 2 min 0 min 820 W/m 41,8 km/h (6 Bft) 100,00 %
21.05.2021 16:34 18,6 C 22,2 C 16,1 C 49 % 1003,5 hPa 0,0 l/m 2 min 0 min 776 W/m 45,1 km/h (6 Bft) 97,87 %
21.05.2021 16:36 18,6 C 21,1 C 16,1 C 48 % 1003,5 hPa 0,0 l/m 2 min 0 min 773 W/m 48,3 km/h (6 Bft) 97,87 %
21.05.2021 16:38 18,5 C 20,0 C 16,1 C 48 % 1003,4 hPa 0,0 l/m 2 min 0 min 404 W/m 38,6 km/h (5 Bft) 100,00 %
21.05.2021 16:40 18,5 C 20,6 C 15,6 C 47 % 1003,3 hPa 0,0 l/m 2 min 0 min 656 W/m 51,5 km/h (7 Bft) 100,00 %
21.05.2021 16:42 18,4 C 21,1 C 15,6 C 48 % 1003,4 hPa 0,0 l/m 2 min 0 min 760 W/m 64,4 km/h (8 Bft) 100,00 %
21.05.2021 16:44 18,5 C 21,7 C 16,1 C 48 % 1003,3 hPa 0,0 l/m 2 min 0 min 742 W/m 48,3 km/h (6 Bft) 100,00 %
21.05.2021 16:46 18,6 C 22,2 C 16,1 C 47 % 1003,3 hPa 0,0 l/m 2 min 0 min 733 W/m 35,4 km/h (5 Bft) 97,87 %
21.05.2021 16:48 18,8 C 22,2 C 16,1 C 46 % 1003,3 hPa 0,0 l/m 2 min 0 min 722 W/m 41,8 km/h (6 Bft) 100,00 %
21.05.2021 16:50 18,9 C 22,8 C 16,7 C 46 % 1003,1 hPa 0,0 l/m 2 min 0 min 728 W/m 32,2 km/h (5 Bft) 100,00 %
21.05.2021 16:52 19,0 C 22,2 C 16,7 C 45 % 1003,3 hPa 0,0 l/m 2 min 0 min 754 W/m 48,3 km/h (6 Bft) 100,00 %
21.05.2021 16:54 19,0 C 22,8 C 16,7 C 45 % 1003,2 hPa 0,0 l/m 2 min 0 min 789 W/m 45,1 km/h (6 Bft) 100,00 %
21.05.2021 16:56 19,0 C 22,2 C 16,7 C 45 % 1003,2 hPa 0,0 l/m 2 min 0 min 791 W/m 25,7 km/h (4 Bft) 100,00 %
21.05.2021 16:58 19,0 C 20,6 C 16,7 C 45 % 1003,1 hPa 0,0 l/m 2 min 0 min 791 W/m 38,6 km/h (5 Bft) 100,00 %
21.05.2021 17:00 18,9 C 20,0 C 16,1 C 45 % 1003,1 hPa 0,0 l/m 0 min 0 min 258 W/m 32,2 km/h (5 Bft) 91,49 %
21.05.2021 17:02 18,7 C 19,4 C 16,1 C 45 % 1003,2 hPa 0,0 l/m 0 min 0 min 209 W/m 35,4 km/h (5 Bft) 93,62 %
21.05.2021 17:04 18,6 C 21,1 C 16,1 C 46 % 1003,0 hPa 0,0 l/m 2 min 0 min 422 W/m 22,5 km/h (4 Bft) 91,49 %
21.05.2021 17:06 18,6 C 21,7 C 16,1 C 46 % 1003,1 hPa 0,0 l/m 2 min 0 min 762 W/m 22,5 km/h (4 Bft) 89,13 %
21.05.2021 17:08 18,7 C 20,6 C 16,1 C 47 % 1003,2 hPa 0,0 l/m 2 min 0 min 622 W/m 29,0 km/h (5 Bft) 70,21 %
21.05.2021 17:10 18,8 C 21,1 C 16,1 C 47 % 1003,0 hPa 0,0 l/m 0 min 0 min 225 W/m 32,2 km/h (5 Bft) 82,98 %
21.05.2021 17:12 18,8 C 20,6 C 16,1 C 47 % 1003,2 hPa 0,0 l/m 0 min 0 min 214 W/m 32,2 km/h (5 Bft) 85,11 %
21.05.2021 17:14 18,8 C 20,6 C 16,1 C 46 % 1003,1 hPa 0,0 l/m 0 min 0 min 213 W/m 45,1 km/h (6 Bft) 85,11 %
21.05.2021 17:16 18,6 C 18,9 C 16,1 C 46 % 1003,1 hPa 0,0 l/m 0 min 0 min 201 W/m 48,3 km/h (6 Bft) 97,87 %
21.05.2021 17:18 18,4 C 18,3 C 15,6 C 46 % 1003,1 hPa 0,0 l/m 0 min 0 min 183 W/m 70,8 km/h (8 Bft) 91,30 %
21.05.2021 17:20 18,2 C 17,8 C 15,6 C 47 % 1003,1 hPa 0,0 l/m 0 min 0 min 163 W/m 38,6 km/h (5 Bft) 95,74 %
21.05.2021 17:22 18,0 C 17,8 C 15,6 C 48 % 1003,1 hPa 0,0 l/m 0 min 0 min 173 W/m 41,8 km/h (6 Bft) 91,49 %
21.05.2021 17:24 18,0 C 17,8 C 15,0 C 49 % 1003,1 hPa 0,0 l/m 0 min 0 min 208 W/m 38,6 km/h (5 Bft) 93,62 %
21.05.2021 17:26 17,9 C 17,8 C 15,0 C 49 % 1003,2 hPa 0,0 l/m 0 min 0 min 229 W/m 61,2 km/h (7 Bft) 97,87 %
21.05.2021 17:28 17,8 C 17,2 C 15,0 C 49 % 1003,2 hPa 0,0 l/m 0 min 0 min 217 W/m 35,4 km/h (5 Bft) 100,00 %
21.05.2021 17:30 17,7 C 17,2 C 15,0 C 49 % 1003,2 hPa 0,0 l/m 0 min 0 min 219 W/m 29,0 km/h (5 Bft) 91,30 %
21.05.2021 17:32 17,7 C 17,8 C 15,0 C 50 % 1003,1 hPa 0,0 l/m 0 min 0 min 217 W/m 22,5 km/h (4 Bft) 93,62 %
21.05.2021 17:34 17,7 C 17,8 C 15,0 C 50 % 1003,1 hPa 0,0 l/m 0 min 0 min 218 W/m 29,0 km/h (5 Bft) 80,85 %
21.05.2021 17:36 17,6 C 17,8 C 15,0 C 49 % 1003,1 hPa 0,0 l/m 0 min 0 min 234 W/m 22,5 km/h (4 Bft) 93,62 %
21.05.2021 17:38 17,6 C 19,4 C 15,6 C 49 % 1003,1 hPa 0,0 l/m 2 min 0 min 376 W/m 29,0 km/h (5 Bft) 91,49 %
21.05.2021 17:40 17,8 C 20,6 C 15,6 C 49 % 1003,0 hPa 0,0 l/m 2 min 0 min 709 W/m 35,4 km/h (5 Bft) 100,00 %
21.05.2021 17:42 17,9 C 21,1 C 15,6 C 49 % 1003,1 hPa 0,0 l/m 2 min 0 min 632 W/m 48,3 km/h (6 Bft) 100,00 %
21.05.2021 17:44 18,0 C 21,7 C 16,1 C 49 % 1003,0 hPa 0,0 l/m 2 min 0 min 581 W/m 22,5 km/h (4 Bft) 95,74 %
21.05.2021 17:46 18,1 C 21,7 C 16,1 C 48 % 1002,9 hPa 0,0 l/m 2 min 0 min 574 W/m 29,0 km/h (5 Bft) 100,00 %
21.05.2021 17:48 18,3 C 22,2 C 16,1 C 49 % 1002,8 hPa 0,0 l/m 2 min 0 min 580 W/m 19,3 km/h (3 Bft) 97,87 %
21.05.2021 17:50 18,4 C 21,7 C 16,1 C 49 % 1003,0 hPa 0,0 l/m 2 min 0 min 607 W/m 25,7 km/h (4 Bft) 97,83 %
21.05.2021 17:52 18,4 C 20,0 C 16,1 C 49 % 1002,8 hPa 0,0 l/m 0 min 0 min 206 W/m 25,7 km/h (4 Bft) 93,62 %
21.05.2021 17:54 18,3 C 18,3 C 15,6 C 49 % 1002,8 hPa 0,0 l/m 0 min 0 min 137 W/m 70,8 km/h (8 Bft) 97,87 %
21.05.2021 17:56 18,0 C 17,8 C 15,0 C 49 % 1002,7 hPa 0,0 l/m 0 min 0 min 126 W/m 45,1 km/h (6 Bft) 93,62 %
21.05.2021 17:58 17,8 C 17,2 C 15,0 C 49 % 1002,8 hPa 0,0 l/m 0 min 0 min 107 W/m 48,3 km/h (6 Bft) 91,49 %
21.05.2021 18:00 17,6 C 17,2 C 15,0 C 50 % 1002,8 hPa 0,0 l/m 0 min 0 min 79 W/m 25,7 km/h (4 Bft) 97,87 %
21.05.2021 18:02 17,5 C 16,7 C 14,5 C 52 % 1003,0 hPa 0,0 l/m 0 min 0 min 67 W/m 35,4 km/h (5 Bft) 93,48 %
21.05.2021 18:04 17,0 C 15,6 C 13,4 C 55 % 1003,4 hPa 0,0 l/m 0 min 2 min 82 W/m 61,2 km/h (7 Bft) 93,62 %
21.05.2021 18:08 15,9 C 16,1 C 11,1 C 63 % 1003,1 hPa 0,0 l/m 4 min 4 min 303 W/m 93,3 km/h (10 Bft) 96,81 %
21.05.2021 18:10 15,7 C 17,2 C 11,1 C 64 % 1003,0 hPa 0,0 l/m 2 min 2 min 607 W/m 38,6 km/h (5 Bft) 97,87 %
21.05.2021 18:12 15,6 C 17,8 C 11,7 C 63 % 1003,0 hPa 0,0 l/m 2 min 0 min 595 W/m 38,6 km/h (5 Bft) 97,87 %
21.05.2021 18:14 15,6 C 18,9 C 12,3 C 63 % 1003,0 hPa 0,0 l/m 2 min 0 min 506 W/m 29,0 km/h (5 Bft) 97,83 %
21.05.2021 18:16 15,7 C 19,4 C 12,8 C 63 % 1002,9 hPa 0,0 l/m 2 min 0 min 473 W/m 29,0 km/h (5 Bft) 95,74 %
21.05.2021 18:18 15,8 C 19,4 C 12,8 C 61 % 1002,9 hPa 0,0 l/m 2 min 0 min 461 W/m 41,8 km/h (6 Bft) 97,87 %
21.05.2021 18:20 15,8 C 20,0 C 13,4 C 59 % 1002,8 hPa 0,0 l/m 2 min 0 min 452 W/m 29,0 km/h (5 Bft) 91,49 %
21.05.2021 18:22 15,9 C 20,6 C 13,4 C 60 % 1002,7 hPa 0,0 l/m 2 min 0 min 446 W/m 25,7 km/h (4 Bft) 65,96 %
21.05.2021 18:24 16,1 C 21,1 C 13,9 C 60 % 1002,7 hPa 0,0 l/m 2 min 0 min 441 W/m 38,6 km/h (5 Bft) 85,11 %
21.05.2021 18:26 16,2 C 20,0 C 13,9 C 58 % 1002,7 hPa 0,0 l/m 2 min 0 min 434 W/m 48,3 km/h (6 Bft) 95,65 %
21.05.2021 18:28 16,3 C 20,6 C 13,9 C 58 % 1002,7 hPa 0,0 l/m 2 min 0 min 428 W/m 32,2 km/h (5 Bft) 97,87 %
21.05.2021 18:30 16,4 C 20,0 C 13,9 C 58 % 1002,7 hPa 0,0 l/m 2 min 0 min 421 W/m 32,2 km/h (5 Bft) 95,74 %
21.05.2021 18:32 16,5 C 20,6 C 13,9 C 59 % 1002,7 hPa 0,0 l/m 2 min 0 min 415 W/m 29,0 km/h (5 Bft) 93,62 %
21.05.2021 18:34 16,5 C 20,6 C 13,9 C 59 % 1002,7 hPa 0,0 l/m 2 min 0 min 408 W/m 38,6 km/h (5 Bft) 97,87 %
21.05.2021 18:36 16,5 C 20,6 C 13,9 C 59 % 1002,6 hPa 0,0 l/m 2 min 0 min 400 W/m 29,0 km/h (5 Bft) 93,62 %
21.05.2021 18:38 16,5 C 20,6 C 13,9 C 60 % 1002,6 hPa 0,0 l/m 2 min 0 min 398 W/m 32,2 km/h (5 Bft) 91,30 %
21.05.2021 18:40 16,6 C 20,6 C 14,5 C 60 % 1002,7 hPa 0,0 l/m 2 min 0 min 393 W/m 32,2 km/h (5 Bft) 91,49 %
21.05.2021 18:42 16,7 C 20,6 C 14,5 C 60 % 1002,7 hPa 0,0 l/m 2 min 0 min 386 W/m 41,8 km/h (6 Bft) 95,74 %
21.05.2021 18:44 16,8 C 21,1 C 14,5 C 59 % 1002,6 hPa 0,0 l/m 2 min 0 min 378 W/m 32,2 km/h (5 Bft) 89,36 %
21.05.2021 18:46 16,8 C 21,1 C 14,5 C 58 % 1002,6 hPa 0,0 l/m 2 min 0 min 366 W/m 19,3 km/h (3 Bft) 93,62 %
21.05.2021 18:48 16,9 C 20,6 C 14,5 C 57 % 1002,5 hPa 0,0 l/m 2 min 0 min 360 W/m 32,2 km/h (5 Bft) 93,48 %
21.05.2021 18:50 16,9 C 20,6 C 14,5 C 57 % 1002,6 hPa 0,0 l/m 2 min 0 min 357 W/m 25,7 km/h (4 Bft) 93,62 %
21.05.2021 18:52 16,9 C 20,6 C 14,5 C 57 % 1002,5 hPa 0,0 l/m 2 min 0 min 351 W/m 25,7 km/h (4 Bft) 93,62 %
21.05.2021 18:54 16,9 C 20,6 C 14,5 C 57 % 1002,4 hPa 0,0 l/m 2 min 0 min 343 W/m 25,7 km/h (4 Bft) 93,62 %
21.05.2021 18:56 16,9 C 21,1 C 14,5 C 57 % 1002,5 hPa 0,0 l/m 2 min 0 min 338 W/m 16,1 km/h (3 Bft) 91,49 %
21.05.2021 18:58 17,0 C 20,6 C 13,9 C 57 % 1002,5 hPa 0,0 l/m 2 min 0 min 333 W/m 32,2 km/h (5 Bft) 91,49 %
21.05.2021 19:00 17,0 C 20,6 C 13,9 C 57 % 1002,5 hPa 0,0 l/m 2 min 0 min 326 W/m 25,7 km/h (4 Bft) 93,48 %
21.05.2021 19:02 17,0 C 20,6 C 13,9 C 57 % 1002,5 hPa 0,0 l/m 2 min 0 min 320 W/m 32,2 km/h (5 Bft) 95,74 %
21.05.2021 19:04 17,0 C 20,0 C 13,9 C 57 % 1002,4 hPa 0,0 l/m 2 min 0 min 311 W/m 22,5 km/h (4 Bft) 95,74 %
21.05.2021 19:06 17,0 C 20,0 C 13,9 C 57 % 1002,5 hPa 0,0 l/m 2 min 0 min 306 W/m 19,3 km/h (3 Bft) 61,70 %
21.05.2021 19:08 17,0 C 18,9 C 13,9 C 57 % 1002,5 hPa 0,0 l/m 2 min 0 min 306 W/m 29,0 km/h (5 Bft) 78,72 %
21.05.2021 19:10 16,9 C 17,8 C 13,9 C 57 % 1002,6 hPa 0,0 l/m 2 min 0 min 175 W/m 25,7 km/h (4 Bft) 78,72 %
21.05.2021 19:12 16,8 C 16,7 C 13,4 C 57 % 1002,4 hPa 0,0 l/m 0 min 0 min 67 W/m 48,3 km/h (6 Bft) 87,23 %
21.05.2021 19:14 16,6 C 16,1 C 13,4 C 57 % 1002,4 hPa 0,0 l/m 0 min 0 min 143 W/m 35,4 km/h (5 Bft) 91,30 %
21.05.2021 19:16 16,5 C 16,7 C 13,4 C 57 % 1002,4 hPa 0,0 l/m 2 min 0 min 280 W/m 32,2 km/h (5 Bft) 93,62 %
21.05.2021 19:18 16,5 C 16,7 C 13,4 C 58 % 1002,3 hPa 0,0 l/m 2 min 0 min 343 W/m 32,2 km/h (5 Bft) 97,87 %
21.05.2021 19:20 16,5 C 16,7 C 13,9 C 58 % 1002,2 hPa 0,0 l/m 2 min 0 min 306 W/m 22,5 km/h (4 Bft) 78,72 %
21.05.2021 19:22 16,6 C 16,7 C 13,9 C 58 % 1002,2 hPa 0,0 l/m 2 min 0 min 271 W/m 25,7 km/h (4 Bft) 72,34 %
21.05.2021 19:24 16,6 C 16,7 C 13,9 C 59 % 1002,2 hPa 0,0 l/m 2 min 0 min 254 W/m 22,5 km/h (4 Bft) 100,00 %
21.05.2021 19:26 16,7 C 16,1 C 13,4 C 58 % 1002,1 hPa 0,0 l/m 2 min 0 min 237 W/m 32,2 km/h (5 Bft) 100,00 %
21.05.2021 19:28 16,8 C 16,1 C 13,9 C 59 % 1002,1 hPa 0,0 l/m 2 min 0 min 225 W/m 19,3 km/h (3 Bft) 97,87 %
21.05.2021 19:30 16,8 C 16,7 C 13,9 C 58 % 1002,0 hPa 0,0 l/m 2 min 0 min 215 W/m 16,1 km/h (3 Bft) 97,87 %
21.05.2021 19:32 16,8 C 16,1 C 13,9 C 58 % 1002,1 hPa 0,0 l/m 2 min 0 min 205 W/m 29,0 km/h (5 Bft) 100,00 %
21.05.2021 19:34 16,8 C 16,1 C 13,9 C 58 % 1001,9 hPa 0,0 l/m 2 min 0 min 198 W/m 12,9 km/h (3 Bft) 100,00 %
21.05.2021 19:36 16,8 C 16,1 C 13,9 C 58 % 1001,9 hPa 0,0 l/m 2 min 0 min 141 W/m 19,3 km/h (3 Bft) 100,00 %
21.05.2021 19:38 16,8 C 16,1 C 13,4 C 58 % 1001,8 hPa 0,0 l/m 0 min 0 min 56 W/m 19,3 km/h (3 Bft) 97,83 %
21.05.2021 19:40 16,8 C 16,1 C 13,4 C 59 % 1001,8 hPa 0,0 l/m 0 min 0 min 38 W/m 16,1 km/h (3 Bft) 97,87 %
21.05.2021 19:42 16,8 C 15,6 C 13,4 C 59 % 1001,8 hPa 0,0 l/m 0 min 0 min 40 W/m 12,9 km/h (3 Bft) 97,87 %
21.05.2021 19:44 16,6 C 15,6 C 13,4 C 60 % 1001,9 hPa 0,0 l/m 0 min 0 min 42 W/m 35,4 km/h (5 Bft) 100,00 %
21.05.2021 19:46 16,5 C 15,6 C 12,8 C 60 % 1001,9 hPa 0,0 l/m 0 min 0 min 36 W/m 19,3 km/h (3 Bft) 97,87 %
21.05.2021 19:48 16,4 C 15,0 C 12,8 C 61 % 1001,8 hPa 0,0 l/m 0 min 0 min 24 W/m 29,0 km/h (5 Bft) 97,83 %
21.05.2021 19:50 16,3 C 15,0 C 12,8 C 62 % 1001,8 hPa 0,0 l/m 0 min 0 min 21 W/m 16,1 km/h (3 Bft) 100,00 %
21.05.2021 19:52 16,1 C 15,0 C 12,8 C 62 % 1001,8 hPa 0,0 l/m 0 min 0 min 19 W/m 25,7 km/h (4 Bft) 100,00 %
21.05.2021 19:54 16,0 C 15,0 C 12,8 C 63 % 1001,7 hPa 0,0 l/m 0 min 0 min 11 W/m 22,5 km/h (4 Bft) 100,00 %
21.05.2021 19:56 15,9 C 15,0 C 12,8 C 63 % 1001,9 hPa 0,0 l/m 0 min 0 min 9 W/m 25,7 km/h (4 Bft) 97,87 %
21.05.2021 19:58 15,9 C 13,3 C 11,7 C 64 % 1002,1 hPa 0,2 l/m 0 min 2 min 13 W/m 35,4 km/h (5 Bft) 100,00 %
21.05.2021 20:00 15,6 C 11,1 C 9,5 C 70 % 1002,6 hPa 0,4 l/m 0 min 2 min 25 W/m 48,3 km/h (6 Bft) 100,00 %
21.05.2021 20:02 15,1 C 10,6 C 8,9 C 72 % 1002,0 hPa 0,2 l/m 0 min 2 min 56 W/m 32,2 km/h (5 Bft) 100,00 %
21.05.2021 20:04 14,8 C 10,6 C 8,4 C 73 % 1002,2 hPa 0,0 l/m 0 min 2 min 83 W/m 22,5 km/h (4 Bft) 100,00 %
21.05.2021 20:06 14,5 C 11,1 C 8,4 C 74 % 1002,2 hPa 0,0 l/m 2 min 0 min 91 W/m 25,7 km/h (4 Bft) 100,00 %
21.05.2021 20:08 14,5 C 11,7 C 8,9 C 75 % 1002,1 hPa 0,0 l/m 2 min 0 min 112 W/m 25,7 km/h (4 Bft) 100,00 %
21.05.2021 20:10 14,5 C 11,7 C 8,9 C 76 % 1002,1 hPa 0,0 l/m 2 min 0 min 93 W/m 22,5 km/h (4 Bft) 100,00 %
21.05.2021 20:12 14,4 C 11,7 C 8,9 C 77 % 1002,1 hPa 0,0 l/m 0 min 0 min 71 W/m 12,9 km/h (3 Bft) 100,00 %
21.05.2021 20:14 14,4 C 12,2 C 8,9 C 76 % 1001,9 hPa 0,0 l/m 0 min 0 min 70 W/m 22,5 km/h (4 Bft) 100,00 %
21.05.2021 20:16 14,3 C 12,2 C 8,9 C 77 % 1002,0 hPa 0,0 l/m 0 min 0 min 73 W/m 29,0 km/h (5 Bft) 100,00 %
21.05.2021 20:18 14,3 C 12,8 C 8,9 C 73 % 1001,9 hPa 0,0 l/m 0 min 0 min 70 W/m 35,4 km/h (5 Bft) 100,00 %
21.05.2021 20:20 14,3 C 12,8 C 8,4 C 72 % 1002,0 hPa 0,0 l/m 2 min 0 min 71 W/m 32,2 km/h (5 Bft) 98,15 %
21.05.2021 20:22 14,3 C 12,8 C 8,4 C 71 % 1001,9 hPa 0,0 l/m 2 min 0 min 70 W/m 35,4 km/h (5 Bft) 100,00 %
21.05.2021 20:24 14,3 C 12,8 C 8,4 C 70 % 1001,9 hPa 0,0 l/m 0 min 0 min 65 W/m 29,0 km/h (5 Bft) 100,00 %
21.05.2021 20:26 14,3 C 13,3 C 8,4 C 69 % 1002,0 hPa 0,0 l/m 2 min 0 min 74 W/m 16,1 km/h (3 Bft) 100,00 %
21.05.2021 20:28 14,3 C 13,3 C 8,4 C 69 % 1001,9 hPa 0,0 l/m 2 min 0 min 90 W/m 12,9 km/h (3 Bft) 100,00 %
21.05.2021 20:30 14,3 C 13,3 C 8,9 C 69 % 1002,0 hPa 0,0 l/m 2 min 0 min 99 W/m 25,7 km/h (4 Bft) 100,00 %
21.05.2021 20:32 14,3 C 13,3 C 8,4 C 68 % 1001,9 hPa 0,0 l/m 2 min 0 min 90 W/m 32,2 km/h (5 Bft) 100,00 %
21.05.2021 20:34 14,3 C 13,3 C 8,4 C 67 % 1001,9 hPa 0,0 l/m 2 min 0 min 75 W/m 22,5 km/h (4 Bft) 97,50 %
21.05.2021 20:36 14,4 C 13,3 C 8,4 C 66 % 1002,0 hPa 0,0 l/m 2 min 0 min 66 W/m 29,0 km/h (5 Bft) 97,83 %
21.05.2021 20:38 14,4 C 13,3 C 8,4 C 66 % 1002,0 hPa 0,0 l/m 2 min 0 min 59 W/m 45,1 km/h (6 Bft) 97,87 %
21.05.2021 20:40 14,4 C 13,3 C 8,4 C 65 % 1002,0 hPa 0,0 l/m 2 min 0 min 49 W/m 29,0 km/h (5 Bft) 95,74 %
21.05.2021 20:42 14,4 C 13,3 C 8,4 C 66 % 1002,1 hPa 0,0 l/m 0 min 0 min 37 W/m 25,7 km/h (4 Bft) 97,87 %
21.05.2021 20:44 14,3 C 13,3 C 8,4 C 65 % 1002,1 hPa 0,0 l/m 0 min 0 min 29 W/m 32,2 km/h (5 Bft) 95,74 %
21.05.2021 20:46 14,2 C 13,3 C 7,8 C 66 % 1002,0 hPa 0,0 l/m 0 min 0 min 25 W/m 45,1 km/h (6 Bft) 97,83 %
21.05.2021 20:48 14,2 C 12,8 C 7,8 C 66 % 1002,0 hPa 0,0 l/m 0 min 0 min 22 W/m 29,0 km/h (5 Bft) 97,78 %
21.05.2021 20:50 14,2 C 12,8 C 7,8 C 66 % 1002,0 hPa 0,0 l/m 0 min 0 min 19 W/m 22,5 km/h (4 Bft) 98,28 %
21.05.2021 20:52 14,1 C 12,8 C 7,8 C 67 % 1002,0 hPa 0,0 l/m 0 min 0 min 18 W/m 32,2 km/h (5 Bft) 97,14 %
21.05.2021 20:54 14,0 C 12,8 C 7,8 C 67 % 1002,0 hPa 0,0 l/m 0 min 0 min 16 W/m 19,3 km/h (3 Bft) 95,74 %
21.05.2021 20:56 14,0 C 12,8 C 7,8 C 67 % 1002,0 hPa 0,0 l/m 0 min 0 min 14 W/m 25,7 km/h (4 Bft) 96,00 %
21.05.2021 20:58 13,9 C 12,8 C 7,8 C 68 % 1002,1 hPa 0,0 l/m 0 min 0 min 14 W/m 25,7 km/h (4 Bft) 93,48 %
21.05.2021 21:00 13,8 C 12,8 C 7,8 C 68 % 1002,0 hPa 0,0 l/m 0 min 0 min 14 W/m 32,2 km/h (5 Bft) 95,74 %
21.05.2021 21:02 13,8 C 12,8 C 7,8 C 69 % 1002,1 hPa 0,0 l/m 0 min 0 min 12 W/m 29,0 km/h (5 Bft) 93,62 %
21.05.2021 21:04 13,6 C 12,8 C 7,8 C 69 % 1002,1 hPa 0,0 l/m 0 min 0 min 12 W/m 16,1 km/h (3 Bft) 96,00 %
21.05.2021 21:06 13,6 C 12,2 C 7,8 C 69 % 1002,1 hPa 0,0 l/m 0 min 0 min 11 W/m 16,1 km/h (3 Bft) 93,62 %
21.05.2021 21:08 13,5 C 12,2 C 7,8 C 69 % 1002,1 hPa 0,0 l/m 0 min 0 min 11 W/m 16,1 km/h (3 Bft) 95,74 %
21.05.2021 21:10 13,5 C 12,2 C 7,8 C 70 % 1002,1 hPa 0,0 l/m 0 min 0 min 10 W/m 22,5 km/h (4 Bft) 95,24 %
21.05.2021 21:12 13,4 C 12,2 C 7,8 C 70 % 1002,1 hPa 0,0 l/m 0 min 0 min 9 W/m 22,5 km/h (4 Bft) 95,74 %
21.05.2021 21:14 13,4 C 12,2 C 7,8 C 70 % 1002,2 hPa 0,0 l/m 0 min 0 min 9 W/m 22,5 km/h (4 Bft) 95,65 %
21.05.2021 21:16 13,3 C 12,2 C 7,8 C 71 % 1002,2 hPa 0,0 l/m 0 min 0 min 7 W/m 29,0 km/h (5 Bft) 91,49 %
21.05.2021 21:18 13,2 C 12,2 C 7,8 C 71 % 1002,2 hPa 0,0 l/m 0 min 0 min 7 W/m 16,1 km/h (3 Bft) 95,74 %
21.05.2021 21:20 13,1 C 12,2 C 7,8 C 72 % 1002,1 hPa 0,0 l/m 0 min 0 min 6 W/m 19,3 km/h (3 Bft) 95,74 %
21.05.2021 21:22 13,0 C 12,2 C 7,8 C 72 % 1002,2 hPa 0,0 l/m 0 min 0 min 5 W/m 19,3 km/h (3 Bft) 95,74 %
21.05.2021 21:24 13,0 C 11,7 C 7,8 C 72 % 1002,3 hPa 0,0 l/m 0 min 0 min 5 W/m 12,9 km/h (3 Bft) 96,08 %
21.05.2021 21:26 13,0 C 11,7 C 7,8 C 72 % 1002,2 hPa 0,0 l/m 0 min 0 min 2 W/m 19,3 km/h (3 Bft) 97,87 %
21.05.2021 21:28 12,9 C 11,7 C 7,8 C 73 % 1002,3 hPa 0,0 l/m 0 min 0 min 0 W/m 9,7 km/h (2 Bft) 97,87 %
21.05.2021 21:30 12,9 C 11,7 C 7,8 C 73 % 1002,3 hPa 0,0 l/m 0 min 0 min 0 W/m 9,7 km/h (2 Bft) 95,74 %
21.05.2021 21:32 12,8 C 11,7 C 7,8 C 73 % 1002,3 hPa 0,0 l/m 0 min 0 min 0 W/m 9,7 km/h (2 Bft) 100,00 %
21.05.2021 21:34 12,8 C 11,7 C 7,8 C 73 % 1002,3 hPa 0,0 l/m 0 min 0 min 0 W/m 12,9 km/h (3 Bft) 95,74 %
21.05.2021 21:36 12,8 C 11,7 C 7,8 C 74 % 1002,3 hPa 0,0 l/m 0 min 0 min 0 W/m 19,3 km/h (3 Bft) 97,87 %
21.05.2021 21:38 12,7 C 11,7 C 7,8 C 74 % 1002,4 hPa 0,0 l/m 0 min 0 min 0 W/m 12,9 km/h (3 Bft) 100,00 %
21.05.2021 21:40 12,6 C 11,7 C 7,8 C 74 % 1002,4 hPa 0,0 l/m 0 min 0 min 0 W/m 12,9 km/h (3 Bft) 100,00 %
21.05.2021 21:42 12,6 C 11,7 C 7,8 C 75 % 1002,5 hPa 0,0 l/m 0 min 0 min 0 W/m 12,9 km/h (3 Bft) 100,00 %
21.05.2021 21:44 12,5 C 11,7 C 7,8 C 75 % 1002,4 hPa 0,0 l/m 0 min 0 min 0 W/m 22,5 km/h (4 Bft) 97,87 %
21.05.2021 21:46 12,5 C 11,7 C 8,4 C 75 % 1002,4 hPa 0,0 l/m 0 min 0 min 0 W/m 19,3 km/h (3 Bft) 97,87 %
21.05.2021 21:48 12,4 C 11,7 C 8,4 C 75 % 1002,5 hPa 0,0 l/m 0 min 0 min 0 W/m 19,3 km/h (3 Bft) 100,00 %
21.05.2021 21:50 12,4 C 11,7 C 8,4 C 75 % 1002,4 hPa 0,0 l/m 0 min 0 min 0 W/m 19,3 km/h (3 Bft) 100,00 %
21.05.2021 21:52 12,4 C 11,7 C 8,4 C 76 % 1002,5 hPa 0,0 l/m 0 min 0 min 0 W/m 19,3 km/h (3 Bft) 100,00 %
21.05.2021 21:54 12,3 C 11,7 C 8,9 C 76 % 1002,5 hPa 0,0 l/m 0 min 0 min 0 W/m 12,9 km/h (3 Bft) 100,00 %
21.05.2021 21:56 12,3 C 11,7 C 8,9 C 76 % 1002,5 hPa 0,0 l/m 0 min 0 min 0 W/m 16,1 km/h (3 Bft) 100,00 %
21.05.2021 21:58 12,3 C 11,7 C 8,9 C 76 % 1002,5 hPa 0,0 l/m 0 min 0 min 0 W/m 16,1 km/h (3 Bft) 100,00 %
21.05.2021 22:00 12,3 C 11,7 C 8,9 C 76 % 1002,5 hPa 0,0 l/m 0 min 0 min 0 W/m 16,1 km/h (3 Bft) 100,00 %
21.05.2021 22:02 12,3 C 11,7 C 8,9 C 77 % 1002,4 hPa 0,0 l/m 0 min 0 min 0 W/m 6,4 km/h (2 Bft) 93,62 %
21.05.2021 22:04 12,2 C 11,7 C 8,9 C 77 % 1002,5 hPa 0,0 l/m 0 min 0 min 0 W/m 6,4 km/h (2 Bft) 100,00 %
21.05.2021 22:06 12,2 C 11,7 C 8,9 C 77 % 1002,6 hPa 0,0 l/m 0 min 0 min 0 W/m 12,9 km/h (3 Bft) 100,00 %
21.05.2021 22:08 12,3 C 11,7 C 8,9 C 77 % 1002,6 hPa 0,0 l/m 0 min 0 min 0 W/m 9,7 km/h (2 Bft) 100,00 %
21.05.2021 22:10 12,3 C 11,7 C 8,9 C 78 % 1002,6 hPa 0,0 l/m 0 min 0 min 0 W/m 6,4 km/h (2 Bft) 100,00 %
21.05.2021 22:12 12,3 C 11,7 C 8,9 C 78 % 1002,5 hPa 0,0 l/m 0 min 0 min 0 W/m 6,4 km/h (2 Bft) 100,00 %
21.05.2021 22:14 12,3 C 11,7 C 8,9 C 78 % 1002,5 hPa 0,0 l/m 0 min 0 min 0 W/m 6,4 km/h (2 Bft) 97,87 %
21.05.2021 22:16 12,3 C 11,7 C 8,9 C 78 % 1002,5 hPa 0,0 l/m 0 min 0 min 0 W/m 3,2 km/h (1 Bft) 97,87 %
21.05.2021 22:18 12,2 C 11,1 C 8,9 C 78 % 1002,5 hPa 0,0 l/m 0 min 0 min 0 W/m 6,4 km/h (2 Bft) 97,87 %
21.05.2021 22:20 12,1 C 11,1 C 8,9 C 78 % 1002,5 hPa 0,0 l/m 0 min 0 min 0 W/m 6,4 km/h (2 Bft) 95,65 %
21.05.2021 22:22 12,1 C 11,1 C 8,9 C 78 % 1002,4 hPa 0,0 l/m 0 min 0 min 0 W/m 3,2 km/h (1 Bft) 97,87 %
21.05.2021 22:24 12,1 C 11,1 C 8,9 C 78 % 1002,4 hPa 0,0 l/m 0 min 0 min 0 W/m 3,2 km/h (1 Bft) 97,87 %
21.05.2021 22:26 12,1 C 11,1 C 8,4 C 78 % 1002,4 hPa 0,0 l/m 0 min 0 min 0 W/m 3,2 km/h (1 Bft) 97,87 %
21.05.2021 22:28 12,1 C 10,6 C 8,4 C 78 % 1002,3 hPa 0,0 l/m 0 min 0 min 0 W/m 3,2 km/h (1 Bft) 97,87 %
21.05.2021 22:30 12,0 C 10,6 C 8,4 C 78 % 1002,3 hPa 0,0 l/m 0 min 0 min 0 W/m 3,2 km/h (1 Bft) 97,87 %
21.05.2021 22:32 12,0 C 10,6 C 8,4 C 79 % 1002,3 hPa 0,0 l/m 0 min 0 min 0 W/m 6,4 km/h (2 Bft) 97,56 %
21.05.2021 22:34 12,0 C 10,6 C 8,4 C 79 % 1002,2 hPa 0,0 l/m 0 min 0 min 0 W/m 3,2 km/h (1 Bft) 97,87 %
21.05.2021 22:36 12,0 C 10,6 C 8,4 C 79 % 1002,2 hPa 0,0 l/m 0 min 0 min 0 W/m 3,2 km/h (1 Bft) 97,87 %
21.05.2021 22:38 11,9 C 10,6 C 8,4 C 79 % 1002,1 hPa 0,0 l/m 0 min 0 min 0 W/m 3,2 km/h (1 Bft) 98,28 %
21.05.2021 22:40 11,9 C 10,6 C 8,4 C 79 % 1002,1 hPa 0,0 l/m 0 min 0 min 0 W/m 3,2 km/h (1 Bft) 97,14 %
21.05.2021 22:42 11,9 C 10,6 C 8,4 C 79 % 1002,1 hPa 0,0 l/m 0 min 0 min 0 W/m 3,2 km/h (1 Bft) 95,74 %
21.05.2021 22:44 11,8 C 10,6 C 8,4 C 79 % 1002,1 hPa 0,0 l/m 0 min 0 min 0 W/m 6,4 km/h (2 Bft) 95,74 %
21.05.2021 22:46 11,8 C 10,0 C 8,4 C 80 % 1002,1 hPa 0,0 l/m 0 min 0 min 0 W/m 3,2 km/h (1 Bft) 97,96 %
21.05.2021 22:48 11,7 C 10,0 C 7,8 C 80 % 1002,1 hPa 0,0 l/m 0 min 0 min 0 W/m 6,4 km/h (2 Bft) 97,83 %
21.05.2021 22:50 11,6 C 10,0 C 8,4 C 80 % 1002,0 hPa 0,0 l/m 0 min 0 min 0 W/m 3,2 km/h (1 Bft) 97,87 %
21.05.2021 22:52 11,6 C 10,0 C 7,8 C 80 % 1002,0 hPa 0,0 l/m 0 min 0 min 0 W/m 6,4 km/h (2 Bft) 97,87 %
21.05.2021 22:54 11,5 C 10,0 C 7,8 C 80 % 1002,0 hPa 0,0 l/m 0 min 0 min 0 W/m 12,9 km/h (3 Bft) 97,87 %
21.05.2021 22:56 11,4 C 10,0 C 7,8 C 81 % 1002,0 hPa 0,0 l/m 0 min 0 min 0 W/m 12,9 km/h (3 Bft) 97,87 %
21.05.2021 22:58 11,4 C 10,0 C 7,8 C 81 % 1002,0 hPa 0,0 l/m 0 min 0 min 0 W/m 16,1 km/h (3 Bft) 97,87 %
21.05.2021 23:00 11,3 C 10,0 C 7,8 C 81 % 1002,1 hPa 0,0 l/m 0 min 0 min 0 W/m 3,2 km/h (1 Bft) 97,83 %
21.05.2021 23:02 11,3 C 10,0 C 7,8 C 81 % 1002,1 hPa 0,0 l/m 0 min 0 min 0 W/m 12,9 km/h (3 Bft) 95,74 %
21.05.2021 23:04 11,2 C 10,0 C 7,8 C 81 % 1002,1 hPa 0,0 l/m 0 min 0 min 0 W/m 6,4 km/h (2 Bft) 95,92 %
21.05.2021 23:06 11,1 C 10,0 C 7,8 C 82 % 1002,1 hPa 0,0 l/m 0 min 0 min 0 W/m 6,4 km/h (2 Bft) 97,87 %
21.05.2021 23:08 11,1 C 10,0 C 7,8 C 82 % 1002,0 hPa 0,0 l/m 0 min 0 min 0 W/m 6,4 km/h (2 Bft) 97,87 %
21.05.2021 23:10 11,0 C 10,0 C 7,8 C 82 % 1002,0 hPa 0,0 l/m 0 min 0 min 0 W/m 6,4 km/h (2 Bft) 95,74 %
21.05.2021 23:12 11,0 C 10,0 C 7,8 C 83 % 1002,0 hPa 0,0 l/m 0 min 0 min 0 W/m 12,9 km/h (3 Bft) 95,65 %
21.05.2021 23:14 11,0 C 10,0 C 7,8 C 83 % 1002,0 hPa 0,0 l/m 0 min 0 min 0 W/m 12,9 km/h (3 Bft) 95,74 %
21.05.2021 23:16 10,9 C 10,0 C 7,8 C 83 % 1002,1 hPa 0,0 l/m 0 min 0 min 0 W/m 9,7 km/h (2 Bft) 93,62 %
21.05.2021 23:18 10,9 C 10,0 C 7,8 C 83 % 1002,1 hPa 0,0 l/m 0 min 0 min 0 W/m 12,9 km/h (3 Bft) 95,92 %
21.05.2021 23:20 10,8 C 10,0 C 7,8 C 84 % 1001,9 hPa 0,0 l/m 0 min 0 min 0 W/m 6,4 km/h (2 Bft) 95,65 %
21.05.2021 23:22 10,8 C 10,0 C 7,8 C 84 % 1001,9 hPa 0,0 l/m 0 min 0 min 0 W/m 12,9 km/h (3 Bft) 93,62 %
21.05.2021 23:24 10,8 C 10,0 C 7,8 C 84 % 1002,0 hPa 0,0 l/m 0 min 0 min 0 W/m 6,4 km/h (2 Bft) 97,87 %
21.05.2021 23:26 10,7 C 10,0 C 7,8 C 84 % 1001,9 hPa 0,0 l/m 0 min 0 min 0 W/m 9,7 km/h (2 Bft) 95,74 %
21.05.2021 23:28 10,7 C 10,0 C 7,8 C 84 % 1001,9 hPa 0,0 l/m 0 min 0 min 0 W/m 12,9 km/h (3 Bft) 95,74 %
21.05.2021 23:30 10,6 C 10,0 C 7,8 C 84 % 1001,9 hPa 0,0 l/m 0 min 0 min 0 W/m 12,9 km/h (3 Bft) 95,74 %
21.05.2021 23:32 10,6 C 10,0 C 7,8 C 84 % 1001,9 hPa 0,0 l/m 0 min 0 min 0 W/m 6,4 km/h (2 Bft) 95,65 %
21.05.2021 23:34 10,6 C 10,0 C 7,8 C 84 % 1001,8 hPa 0,0 l/m 0 min 0 min 0 W/m 12,9 km/h (3 Bft) 93,62 %
21.05.2021 23:36 10,6 C 9,4 C 7,8 C 84 % 1001,9 hPa 0,0 l/m 0 min 0 min 0 W/m 12,9 km/h (3 Bft) 95,74 %
21.05.2021 23:38 10,5 C 9,4 C 7,8 C 85 % 1001,8 hPa 0,0 l/m 0 min 0 min 0 W/m 6,4 km/h (2 Bft) 95,74 %
21.05.2021 23:40 10,5 C 9,4 C 7,8 C 85 % 1001,8 hPa 0,0 l/m 0 min 0 min 0 W/m 6,4 km/h (2 Bft) 97,87 %
21.05.2021 23:42 10,5 C 9,4 C 7,8 C 85 % 1001,8 hPa 0,0 l/m 0 min 0 min 0 W/m 9,7 km/h (2 Bft) 95,74 %
21.05.2021 23:44 10,5 C 9,4 C 7,8 C 85 % 1001,8 hPa 0,0 l/m 0 min 0 min 0 W/m 6,4 km/h (2 Bft) 97,83 %
21.05.2021 23:46 10,5 C 9,4 C 7,8 C 85 % 1001,9 hPa 0,0 l/m 0 min 0 min 0 W/m 9,7 km/h (2 Bft) 93,62 %
21.05.2021 23:48 10,4 C 9,4 C 7,8 C 85 % 1001,9 hPa 0,0 l/m 0 min 0 min 0 W/m 6,4 km/h (2 Bft) 97,87 %
21.05.2021 23:50 10,4 C 9,4 C 7,8 C 85 % 1001,9 hPa 0,0 l/m 0 min 0 min 0 W/m 9,7 km/h (2 Bft) 95,74 %
21.05.2021 23:52 10,4 C 9,4 C 7,8 C 85 % 1002,0 hPa 0,0 l/m 0 min 0 min 0 W/m 9,7 km/h (2 Bft) 93,62 %
21.05.2021 23:54 10,4 C 9,4 C 7,8 C 85 % 1002,0 hPa 0,0 l/m 0 min 0 min 0 W/m 16,1 km/h (3 Bft) 100,00 %
21.05.2021 23:56 10,4 C 9,4 C 7,8 C 85 % 1001,9 hPa 0,0 l/m 0 min 0 min 0 W/m 12,9 km/h (3 Bft) 97,83 %
21.05.2021 23:58 10,4 C 9,4 C 7,8 C 85 % 1001,9 hPa 0,0 l/m 0 min 0 min 0 W/m 6,4 km/h (2 Bft) 97,87 %
_ Min-Zeit 23:48 23:36 20:46 16:52 19:54 - - - - 01:28 11:12
Minimum _ 10,4 C 9,4 C 7,8 C 45 % 1001,7 hPa - - - - 3,2 km/h (1 Bft) 54,35 %
_ Max-Zeit 16:24 16:10 13:16 23:38 00:00 20:00 18:08 18:08 13:38 18:08 00:04
Maximum _ 19,2 C 22,8 C 25,0 C 85 % 1011,5 hPa 0,4 l/m 4 min 4 min 1163 W/m 93,3 km/h
O-SO (10 Bft)
100,00 %
Durchschnitt _ 14,7 C 14,9 C 12,5 C 67 % 1005,0 hPa #0,8 l/m #7:42 h #16 min. 382 W/m 25,1 km/h (4 Bft) 96,67 %
© 2021 W. Hausmann